| time (UTC) | temp C | wind direction | speed KPH | gust KPH | rain 1hr cm | rain 24hr cm | rain mn cm | humidity % | barometer mb |
| 20260505222117 | 16 | 251 | 16.1 | 20.9 | 0.00 | 0.00 | 0.00 | 71 | 1006.1 |
| 20260505222034 | 16 | 263 | 14.5 | 20.9 | 0.00 | 0.00 | 0.00 | 71 | 1005.1 |
| 20260505221951 | 16 | 252 | 17.7 | 22.5 | 0.00 | 0.00 | 0.00 | 71 | 1006.1 |
| 20260505221854 | 16 | 241 | 16.1 | 22.5 | 0.00 | 0.00 | 0.00 | 71 | 1006.1 |
| 20260505221757 | 16 | 259 | 17.7 | 22.5 | 0.00 | 0.00 | 0.00 | 71 | 1006.1 |
| 20260505221636 | 16 | 257 | 16.1 | 22.5 | 0.00 | 0.00 | 0.00 | 71 | 1006.0 |
| 20260505221537 | 16 | 234 | 16.1 | 24.1 | 0.00 | 0.00 | 0.00 | 71 | 1006.0 |
| 20260505221440 | 16 | 249 | 16.1 | 24.1 | 0.00 | 0.00 | 0.00 | 71 | 1006.0 |
| 20260505221335 | 16 | 243 | 16.1 | 24.1 | 0.00 | 0.00 | 0.00 | 71 | 1005.9 |
| 20260505221235 | 16 | 281 | 14.5 | 24.1 | 0.00 | 0.00 | 0.00 | 71 | 1005.9 |
| 20260505221117 | 16 | 247 | 14.5 | 24.1 | 0.00 | 0.00 | 0.00 | 71 | 1005.9 |
| 20260505221021 | 16 | 249 | 14.5 | 24.1 | 0.00 | 0.00 | 0.00 | 71 | 1005.9 |
| 20260505220854 | 16 | 249 | 16.1 | 24.1 | 0.00 | 0.00 | 0.00 | 71 | 1005.9 |
| 20260505220736 | 16 | 254 | 16.1 | 24.1 | 0.00 | 0.00 | 0.00 | 71 | 1006.0 |
| 20260505220618 | 16 | 252 | 16.1 | 22.5 | 0.00 | 0.00 | 0.00 | 71 | 1005.9 |
| 20260505220518 | 16 | 255 | 17.7 | 22.5 | 0.00 | 0.00 | 0.00 | 71 | 1005.9 |
| 20260505220351 | 16 | 240 | 14.5 | 22.5 | 0.00 | 0.00 | 0.00 | 71 | 1005.9 |
| 20260505220254 | 16 | 253 | 12.9 | 22.5 | 0.00 | 0.00 | 0.00 | 71 | 1005.9 |
| 20260505220156 | 16 | 249 | 12.9 | 22.5 | 0.00 | 0.00 | 0.00 | 71 | 1005.9 |
| 20260505220035 | 16 | 239 | 12.9 | 22.5 | 0.00 | 0.00 | 0.00 | 71 | 1005.9 |
| 20260505220022 | 16 | 262 | 12.9 | 22.5 | 0.00 | 0.00 | 0.00 | 71 | 1005.0 |
| 20260505215929 | 16 | 255 | 12.9 | 22.5 | 0.00 | 0.00 | 0.00 | 71 | 1005.9 |
| 20260505215833 | 16 | 271 | 14.5 | 24.1 | 0.00 | 0.00 | 0.00 | 71 | 1005.9 |
| 20260505215737 | 16 | 244 | 14.5 | 24.1 | 0.00 | 0.00 | 0.00 | 71 | 1005.8 |
| 20260505215641 | 16 | 244 | 14.5 | 24.1 | 0.00 | 0.00 | 0.00 | 71 | 1005.9 |
| 20260505215618 | 16 | 244 | 14.5 | 24.1 | 0.00 | 0.00 | 0.00 | 71 | 1005.0 |
| 20260505215537 | 16 | 240 | 16.1 | 24.1 | 0.00 | 0.00 | 0.00 | 71 | 1005.8 |
| 20260505215440 | 16 | 240 | 16.1 | 24.1 | 0.00 | 0.00 | 0.00 | 71 | 1005.8 |
| 20260505215343 | 16 | 233 | 16.1 | 24.1 | 0.00 | 0.00 | 0.00 | 71 | 1005.8 |
| 20260505215244 | 16 | 245 | 17.7 | 24.1 | 0.00 | 0.00 | 0.00 | 71 | 1005.8 |
| 20260505215138 | 17 | 245 | 16.1 | 25.7 | 0.00 | 0.00 | 0.00 | 70 | 1005.8 |
| 20260505214956 | 17 | 247 | 17.7 | 27.4 | 0.00 | 0.00 | 0.00 | 70 | 1005.8 |
| 20260505214858 | 17 | 254 | 17.7 | 27.4 | 0.00 | 0.00 | 0.00 | 70 | 1005.8 |
| 20260505214802 | 17 | 250 | 17.7 | 27.4 | 0.00 | 0.00 | 0.00 | 70 | 1005.8 |
| 20260505214634 | 17 | 246 | 17.7 | 27.4 | 0.00 | 0.00 | 0.00 | 70 | 1005.8 |
| 20260505214514 | 17 | 240 | 19.3 | 27.4 | 0.00 | 0.00 | 0.00 | 70 | 1005.8 |
| 20260505214355 | 17 | 247 | 20.9 | 27.4 | 0.00 | 0.00 | 0.00 | 70 | 1005.8 |
| 20260505214256 | 17 | 242 | 20.9 | 27.4 | 0.00 | 0.00 | 0.00 | 70 | 1005.7 |
| 20260505214147 | 17 | 242 | 19.3 | 27.4 | 0.00 | 0.00 | 0.00 | 70 | 1005.8 |
| 20260505214033 | 17 | 247 | 17.7 | 29.0 | 0.00 | 0.00 | 0.00 | 70 | 1005.7 |
| 20260505213935 | 17 | 240 | 17.7 | 29.0 | 0.00 | 0.00 | 0.00 | 70 | 1005.7 |
| 20260505213808 | 17 | 255 | 19.3 | 29.0 | 0.00 | 0.00 | 0.00 | 70 | 1005.7 |
| 20260505213709 | 17 | 248 | 19.3 | 29.0 | 0.00 | 0.00 | 0.00 | 70 | 1005.6 |
| 20260505213548 | 17 | 243 | 20.9 | 29.0 | 0.00 | 0.00 | 0.00 | 70 | 1005.7 |
| 20260505213518 | 16 | 247 | 20.9 | 29.0 | 0.00 | 0.00 | 0.00 | 70 | 1004.7 |
| 20260505213442 | 17 | 246 | 22.5 | 29.0 | 0.00 | 0.00 | 0.00 | 70 | 1005.7 |
| 20260505213348 | 17 | 251 | 22.5 | 29.0 | 0.00 | 0.00 | 0.00 | 70 | 1005.7 |
| 20260505213251 | 17 | 261 | 22.5 | 30.6 | 0.00 | 0.00 | 0.00 | 70 | 1005.6 |
| 20260505213047 | 16 | 249 | 19.3 | 32.2 | 0.00 | 0.00 | 0.00 | 69 | 1004.8 |
| 20260505213010 | 17 | 245 | 20.9 | 32.2 | 0.00 | 0.00 | 0.00 | 69 | 1005.7 |
| 20260505212910 | 17 | 257 | 22.5 | 32.2 | 0.00 | 0.00 | 0.00 | 69 | 1005.6 |
| 20260505212752 | 17 | 249 | 20.9 | 32.2 | 0.00 | 0.00 | 0.00 | 69 | 1005.6 |
| 20260505212655 | 17 | 231 | 19.3 | 32.2 | 0.00 | 0.00 | 0.00 | 69 | 1005.6 |
| 20260505212601 | 17 | 250 | 20.9 | 32.2 | 0.00 | 0.00 | 0.00 | 69 | 1005.6 |
| 20260505212538 | 17 | 258 | 20.9 | 32.2 | 0.00 | 0.00 | 0.00 | 69 | 1004.7 |
| 20260505212432 | 17 | 240 | 24.1 | 32.2 | 0.00 | 0.00 | 0.00 | 69 | 1005.6 |
| 20260505212332 | 17 | 249 | 20.9 | 32.2 | 0.00 | 0.00 | 0.00 | 69 | 1005.6 |
| 20260505212234 | 17 | 263 | 20.9 | 32.2 | 0.00 | 0.00 | 0.00 | 69 | 1005.7 |
| 20260505212115 | 17 | 247 | 24.1 | 32.2 | 0.00 | 0.00 | 0.00 | 69 | 1005.6 |
| 20260505212040 | 17 | 251 | 22.5 | 32.2 | 0.00 | 0.00 | 0.00 | 69 | 1004.7 |
| 20260505212006 | 17 | 255 | 22.5 | 32.2 | 0.00 | 0.00 | 0.00 | 69 | 1005.6 |
| 20260505211910 | 17 | 251 | 20.9 | 33.8 | 0.00 | 0.00 | 0.00 | 68 | 1005.6 |
| 20260505211818 | 17 | 236 | 20.9 | 33.8 | 0.00 | 0.00 | 0.00 | 68 | 1005.6 |
| 20260505211700 | 17 | 248 | 20.9 | 35.4 | 0.00 | 0.00 | 0.00 | 68 | 1005.5 |
| 20260505211624 | 17 | 271 | 20.9 | 35.4 | 0.00 | 0.00 | 0.00 | 68 | 1004.6 |
| 20260505211550 | 17 | 246 | 22.5 | 35.4 | 0.00 | 0.00 | 0.00 | 68 | 1005.5 |
| 20260505211450 | 17 | 243 | 22.5 | 38.6 | 0.00 | 0.00 | 0.00 | 68 | 1005.5 |
| 20260505211354 | 17 | 240 | 22.5 | 38.6 | 0.00 | 0.00 | 0.00 | 68 | 1005.5 |
| 20260505211254 | 17 | 252 | 22.5 | 38.6 | 0.00 | 0.00 | 0.00 | 68 | 1005.5 |
| 20260505211132 | 17 | 226 | 24.1 | 37.0 | 0.00 | 0.00 | 0.00 | 68 | 1005.5 |
| 20260505211034 | 17 | 217 | 25.7 | 37.0 | 0.00 | 0.00 | 0.00 | 68 | 1005.5 |
| 20260505210937 | 17 | 221 | 25.7 | 37.0 | 0.00 | 0.00 | 0.00 | 68 | 1005.5 |
| 20260505210831 | 17 | 249 | 27.4 | 37.0 | 0.00 | 0.00 | 0.00 | 68 | 1005.5 |
| 20260505210734 | 17 | 251 | 29.0 | 37.0 | 0.00 | 0.00 | 0.00 | 68 | 1005.5 |
| 20260505210615 | 17 | 233 | 29.0 | 38.6 | 0.00 | 0.00 | 0.00 | 68 | 1005.5 |
| 20260505210518 | 17 | 234 | 27.4 | 37.0 | 0.00 | 0.00 | 0.00 | 68 | 1004.6 |
| 20260505210431 | 17 | 247 | 27.4 | 37.0 | 0.00 | 0.00 | 0.00 | 68 | 1005.5 |
| 20260505210333 | 17 | 288 | 27.4 | 37.0 | 0.00 | 0.00 | 0.00 | 68 | 1005.4 |
| 20260505210235 | 17 | 240 | 27.4 | 40.2 | 0.00 | 0.00 | 0.00 | 68 | 1005.5 |
| 20260505210129 | 17 | 243 | 29.0 | 40.2 | 0.00 | 0.00 | 0.00 | 68 | 1005.5 |
| 20260505205948 | 17 | 244 | 27.4 | 40.2 | 0.00 | 0.00 | 0.00 | 68 | 1005.4 |
| 20260505205850 | 17 | 258 | 27.4 | 40.2 | 0.00 | 0.00 | 0.00 | 68 | 1005.4 |
| 20260505205756 | 17 | 238 | 27.4 | 40.2 | 0.00 | 0.00 | 0.00 | 68 | 1005.4 |
| 20260505205700 | 17 | 240 | 29.0 | 41.8 | 0.00 | 0.00 | 0.00 | 68 | 1005.4 |
| 20260505205632 | 17 | 246 | 27.4 | 41.8 | 0.00 | 0.00 | 0.00 | 68 | 1004.5 |
| 20260505205551 | 17 | 242 | 25.7 | 41.8 | 0.00 | 0.00 | 0.00 | 68 | 1005.4 |
| 20260505205453 | 17 | 255 | 25.7 | 41.8 | 0.00 | 0.00 | 0.00 | 68 | 1005.4 |
| 20260505205355 | 17 | 242 | 25.7 | 41.8 | 0.00 | 0.00 | 0.00 | 68 | 1005.4 |
| 20260505205249 | 17 | 237 | 27.4 | 41.8 | 0.00 | 0.00 | 0.00 | 68 | 1005.4 |
| 20260505205130 | 17 | 216 | 27.4 | 41.8 | 0.00 | 0.00 | 0.00 | 68 | 1005.3 |
| 20260505205013 | 17 | 265 | 27.4 | 41.8 | 0.00 | 0.00 | 0.00 | 68 | 1005.4 |
| 20260505204916 | 17 | 254 | 30.6 | 41.8 | 0.00 | 0.00 | 0.00 | 68 | 1005.4 |
| 20260505204810 | 17 | 213 | 27.4 | 37.0 | 0.00 | 0.00 | 0.00 | 68 | 1005.3 |
| 20260505204714 | 17 | 255 | 24.1 | 40.2 | 0.00 | 0.00 | 0.00 | 67 | 1005.4 |
| 20260505204615 | 17 | 247 | 27.4 | 40.2 | 0.00 | 0.00 | 0.00 | 67 | 1005.2 |
| 20260505204436 | 17 | 248 | 24.1 | 40.2 | 0.00 | 0.00 | 0.00 | 67 | 1005.3 |
| 20260505204334 | 17 | 245 | 27.4 | 40.2 | 0.00 | 0.00 | 0.00 | 67 | 1005.4 |
| 20260505204213 | 17 | 253 | 27.4 | 40.2 | 0.00 | 0.00 | 0.00 | 67 | 1005.3 |
| 20260505204116 | 17 | 228 | 27.4 | 40.2 | 0.00 | 0.00 | 0.00 | 67 | 1005.3 |
| 20260505204017 | 17 | 250 | 30.6 | 40.2 | 0.00 | 0.00 | 0.00 | 67 | 1005.3 |
| 20260505203909 | 17 | 240 | 27.4 | 41.8 | 0.00 | 0.00 | 0.00 | 67 | 1005.3 |
| 20260505203811 | 17 | 248 | 24.1 | 41.8 | 0.00 | 0.00 | 0.00 | 66 | 1005.3 |
| 20260505203715 | 17 | 251 | 25.7 | 41.8 | 0.00 | 0.00 | 0.00 | 66 | 1005.3 |
| 20260505203622 | 17 | 245 | 27.4 | 41.8 | 0.00 | 0.00 | 0.00 | 66 | 1005.3 |
| 20260505203556 | 17 | 245 | 27.4 | 41.8 | 0.00 | 0.00 | 0.00 | 66 | 1004.4 |
| 20260505203513 | 17 | 251 | 27.4 | 41.8 | 0.00 | 0.00 | 0.00 | 66 | 1005.3 |
| 20260505203356 | 17 | 224 | 25.7 | 41.8 | 0.00 | 0.00 | 0.00 | 66 | 1005.2 |
| 20260505203258 | 17 | 257 | 27.4 | 41.8 | 0.00 | 0.00 | 0.00 | 66 | 1005.2 |
| 20260505203159 | 17 | 232 | 27.4 | 41.8 | 0.00 | 0.00 | 0.00 | 65 | 1005.2 |
| 20260505203134 | 17 | 251 | 27.4 | 41.8 | 0.00 | 0.00 | 0.00 | 65 | 1004.3 |
| 20260505203049 | 17 | 243 | 29.0 | 41.8 | 0.00 | 0.00 | 0.00 | 65 | 1005.1 |
| 20260505202936 | 18 | 253 | 30.6 | 41.8 | 0.00 | 0.00 | 0.00 | 65 | 1005.2 |
| 20260505202830 | 18 | 251 | 29.0 | 43.5 | 0.00 | 0.00 | 0.00 | 65 | 1005.2 |
| 20260505202712 | 18 | 254 | 27.4 | 38.6 | 0.00 | 0.00 | 0.00 | 65 | 1005.2 |
| 20260505202615 | 18 | 260 | 30.6 | 38.6 | 0.00 | 0.00 | 0.00 | 64 | 1005.1 |
| 20260505202515 | 18 | 253 | 29.0 | 38.6 | 0.00 | 0.00 | 0.00 | 64 | 1005.2 |
| 20260505202345 | 18 | 247 | 25.7 | 38.6 | 0.00 | 0.00 | 0.00 | 63 | 1005.1 |
| 20260505202251 | 18 | 219 | 25.7 | 38.6 | 0.00 | 0.00 | 0.00 | 63 | 1005.1 |
| 20260505202152 | 18 | 270 | 25.7 | 38.6 | 0.00 | 0.00 | 0.00 | 63 | 1005.1 |
| 20260505202053 | 18 | 233 | 27.4 | 38.6 | 0.00 | 0.00 | 0.00 | 63 | 1005.1 |
| 20260505202025 | 18 | 227 | 27.4 | 40.2 | 0.00 | 0.00 | 0.00 | 63 | 1004.2 |
| 20260505201948 | 18 | 247 | 29.0 | 40.2 | 0.00 | 0.00 | 0.00 | 62 | 1005.1 |
| 20260505201852 | 18 | 240 | 29.0 | 40.2 | 0.00 | 0.00 | 0.00 | 62 | 1005.0 |
| 20260505201756 | 18 | 253 | 29.0 | 40.2 | 0.00 | 0.00 | 0.00 | 62 | 1005.0 |
| 20260505201634 | 18 | 249 | 25.7 | 40.2 | 0.00 | 0.00 | 0.00 | 61 | 1005.0 |
| 20260505201536 | 18 | 226 | 27.4 | 40.2 | 0.00 | 0.00 | 0.00 | 61 | 1005.0 |
| 20260505201439 | 18 | 243 | 27.4 | 40.2 | 0.00 | 0.00 | 0.00 | 61 | 1005.0 |
| 20260505201341 | 18 | 236 | 27.4 | 40.2 | 0.00 | 0.00 | 0.00 | 61 | 1005.0 |
| 20260505201234 | 18 | 243 | 29.0 | 40.2 | 0.00 | 0.00 | 0.00 | 60 | 1005.0 |
| 20260505201137 | 18 | 240 | 27.4 | 37.0 | 0.00 | 0.00 | 0.00 | 60 | 1005.0 |
| 20260505201037 | 18 | 246 | 25.7 | 37.0 | 0.00 | 0.00 | 0.00 | 59 | 1005.0 |
| 20260505200924 | 18 | 223 | 25.7 | 37.0 | 0.00 | 0.00 | 0.00 | 59 | 1005.0 |
| 20260505200817 | 18 | 261 | 27.4 | 37.0 | 0.00 | 0.00 | 0.00 | 59 | 1004.9 |
| 20260505200720 | 19 | 226 | 27.4 | 37.0 | 0.00 | 0.00 | 0.00 | 59 | 1004.9 |
| 20260505200621 | 19 | 231 | 25.7 | 37.0 | 0.00 | 0.00 | 0.00 | 58 | 1004.9 |
| 20260505200551 | 18 | 247 | 25.7 | 37.0 | 0.00 | 0.00 | 0.00 | 58 | 1004.1 |
| 20260505200512 | 19 | 259 | 29.0 | 37.0 | 0.00 | 0.00 | 0.00 | 58 | 1004.9 |
| 20260505200332 | 19 | 250 | 25.7 | 37.0 | 0.00 | 0.00 | 0.00 | 57 | 1004.9 |
| 20260505200239 | 19 | 250 | 24.1 | 32.2 | 0.00 | 0.00 | 0.00 | 56 | 1004.9 |
| 20260505200121 | 19 | 229 | 24.1 | 32.2 | 0.00 | 0.00 | 0.00 | 56 | 1004.9 |
| 20260505200054 | 18 | 252 | 22.5 | 32.2 | 0.00 | 0.00 | 0.00 | 56 | 1004.0 |
| 20260505200010 | 19 | 243 | 22.5 | 32.2 | 0.00 | 0.00 | 0.00 | 55 | 1004.9 |
| 20260505195852 | 19 | 270 | 22.5 | 32.2 | 0.00 | 0.00 | 0.00 | 55 | 1004.9 |
| 20260505195734 | 19 | 250 | 20.9 | 32.2 | 0.00 | 0.00 | 0.00 | 54 | 1004.9 |
| 20260505195659 | 19 | 264 | 19.3 | 32.2 | 0.00 | 0.00 | 0.00 | 54 | 1003.9 |
| 20260505195626 | 19 | 245 | 22.5 | 32.2 | 0.00 | 0.00 | 0.00 | 53 | 1004.8 |
| 20260505195526 | 20 | 255 | 25.7 | 32.2 | 0.00 | 0.00 | 0.00 | 53 | 1004.8 |
| 20260505195412 | 20 | 249 | 24.1 | 32.2 | 0.00 | 0.00 | 0.00 | 52 | 1004.8 |
| 20260505195315 | 20 | 252 | 24.1 | 32.2 | 0.00 | 0.00 | 0.00 | 51 | 1004.8 |
| 20260505195205 | 20 | 252 | 22.5 | 32.2 | 0.00 | 0.00 | 0.00 | 50 | 1004.8 |
| 20260505195108 | 20 | 264 | 19.3 | 32.2 | 0.00 | 0.00 | 0.00 | 49 | 1004.8 |
| 20260505195009 | 20 | 245 | 19.3 | 29.0 | 0.00 | 0.00 | 0.00 | 48 | 1004.7 |
| 20260505194912 | 20 | 248 | 20.9 | 29.0 | 0.00 | 0.00 | 0.00 | 48 | 1004.7 |
| 20260505194807 | 20 | 266 | 20.9 | 29.0 | 0.00 | 0.00 | 0.00 | 48 | 1004.7 |
| 20260505194709 | 20 | 271 | 19.3 | 25.7 | 0.00 | 0.00 | 0.00 | 47 | 1004.6 |
| 20260505194612 | 20 | 263 | 17.7 | 25.7 | 0.00 | 0.00 | 0.00 | 48 | 1004.6 |
| 20260505194513 | 20 | 260 | 19.3 | 25.7 | 0.00 | 0.00 | 0.00 | 48 | 1004.5 |
| 20260505194346 | 20 | 267 | 19.3 | 25.7 | 0.00 | 0.00 | 0.00 | 48 | 1004.6 |
| 20260505194226 | 20 | 249 | 19.3 | 25.7 | 0.00 | 0.00 | 0.00 | 48 | 1004.4 |
| 20260505194108 | 20 | 253 | 17.7 | 25.7 | 0.00 | 0.00 | 0.00 | 48 | 1004.3 |
| 20260505194014 | 20 | 243 | 16.1 | 22.5 | 0.00 | 0.00 | 0.00 | 48 | 1004.2 |
| 20260505193907 | 20 | 263 | 14.5 | 19.3 | 0.00 | 0.00 | 0.00 | 48 | 1004.1 |
| 20260505193749 | 20 | 246 | 16.1 | 19.3 | 0.00 | 0.00 | 0.00 | 48 | 1004.1 |
| 20260505193652 | 19 | 233 | 14.5 | 19.3 | 0.00 | 0.00 | 0.00 | 49 | 1004.1 |
| 20260505193552 | 19 | 240 | 12.9 | 17.7 | 0.00 | 0.00 | 0.00 | 49 | 1004.0 |
| 20260505193527 | 19 | 234 | 11.3 | 14.5 | 0.00 | 0.00 | 0.00 | 49 | 1003.1 |
| 20260505193446 | 19 | 249 | 12.9 | 16.1 | 0.00 | 0.00 | 0.00 | 49 | 1004.0 |
| 20260505193353 | 19 | 236 | 12.9 | 16.1 | 0.00 | 0.00 | 0.00 | 49 | 1004.0 |
| 20260505193256 | 19 | 249 | 12.9 | 16.1 | 0.00 | 0.00 | 0.00 | 49 | 1004.0 |
| 20260505193016 | 19 | 231 | 11.3 | 16.1 | 0.00 | 0.00 | 0.00 | 49 | 1003.9 |
| 20260505192920 | 19 | 253 | 12.9 | 16.1 | 0.00 | 0.00 | 0.00 | 49 | 1003.9 |
| 20260505192823 | 19 | 251 | 11.3 | 16.1 | 0.00 | 0.00 | 0.00 | 48 | 1003.9 |
| 20260505192716 | 19 | 261 | 8.0 | 12.9 | 0.00 | 0.00 | 0.00 | 48 | 1003.8 |
| 20260505192623 | 20 | 253 | 8.0 | 12.9 | 0.00 | 0.00 | 0.00 | 48 | 1003.8 |
| 20260505192524 | 20 | 247 | 8.0 | 12.9 | 0.00 | 0.00 | 0.00 | 48 | 1003.8 |
| 20260505192427 | 20 | 240 | 8.0 | 12.9 | 0.00 | 0.00 | 0.00 | 47 | 1003.8 |
| 20260505192301 | 20 | 245 | 8.0 | 9.7 | 0.00 | 0.00 | 0.00 | 47 | 1003.7 |
| 20260505192143 | 20 | 240 | 6.4 | 9.7 | 0.00 | 0.00 | 0.00 | 47 | 1003.8 |
| 20260505192045 | 20 | 238 | 6.4 | 9.7 | 0.00 | 0.00 | 0.00 | 47 | 1003.8 |
| 20260505191948 | 20 | 243 | 6.4 | 9.7 | 0.00 | 0.00 | 0.00 | 47 | 1003.8 |
| 20260505191845 | 20 | 243 | 4.8 | 9.7 | 0.00 | 0.00 | 0.00 | 47 | 1003.7 |
| 20260505191748 | 20 | 249 | 6.4 | 11.3 | 0.00 | 0.00 | 0.00 | 46 | 1003.7 |
| 20260505191651 | 20 | 241 | 6.4 | 11.3 | 0.00 | 0.00 | 0.00 | 46 | 1003.7 |
| 20260505191550 | 20 | 240 | 6.4 | 11.3 | 0.00 | 0.00 | 0.00 | 46 | 1003.7 |
| 20260505191532 | 20 | 244 | 4.8 | 11.3 | 0.00 | 0.00 | 0.00 | 46 | 1002.8 |
| 20260505191445 | 20 | 258 | 4.8 | 11.3 | 0.00 | 0.00 | 0.00 | 46 | 1003.7 |
| 20260505191347 | 21 | 251 | 6.4 | 11.3 | 0.00 | 0.00 | 0.00 | 45 | 1003.7 |
| 20260505191233 | 21 | 257 | 6.4 | 11.3 | 0.00 | 0.00 | 0.00 | 45 | 1003.7 |
| 20260505191136 | 21 | 261 | 6.4 | 12.9 | 0.00 | 0.00 | 0.00 | 45 | 1003.7 |
| 20260505191102 | 21 | 261 | 6.4 | 12.9 | 0.00 | 0.00 | 0.00 | 45 | 1002.8 |
| 20260505191028 | 21 | 255 | 8.0 | 12.9 | 0.00 | 0.00 | 0.00 | 44 | 1003.7 |
| 20260505190930 | 21 | 228 | 8.0 | 12.9 | 0.00 | 0.00 | 0.00 | 45 | 1003.7 |
| 20260505190811 | 21 | 272 | 6.4 | 14.5 | 0.00 | 0.00 | 0.00 | 44 | 1003.6 |
| 20260505190653 | 21 | 259 | 6.4 | 14.5 | 0.00 | 0.00 | 0.00 | 44 | 1003.6 |
| 20260505190624 | 21 | 259 | 6.4 | 14.5 | 0.00 | 0.00 | 0.00 | 44 | 1002.7 |
| 20260505190529 | 21 | 259 | 8.0 | 14.5 | 0.00 | 0.00 | 0.00 | 44 | 1003.7 |
| 20260505190433 | 21 | 234 | 9.7 | 14.5 | 0.00 | 0.00 | 0.00 | 44 | 1003.6 |
| 20260505190337 | 21 | 230 | 9.7 | 14.5 | 0.00 | 0.00 | 0.00 | 44 | 1003.7 |
| 20260505190231 | 21 | 249 | 9.7 | 14.5 | 0.00 | 0.00 | 0.00 | 44 | 1003.6 |
| 20260505190113 | 21 | 230 | 9.7 | 14.5 | 0.00 | 0.00 | 0.00 | 44 | 1003.6 |
| 20260505190014 | 21 | 221 | 11.3 | 14.5 | 0.00 | 0.00 | 0.00 | 44 | 1003.6 |
| 20260505185907 | 21 | 222 | 9.7 | 14.5 | 0.00 | 0.00 | 0.00 | 44 | 1003.6 |
| 20260505185813 | 21 | 227 | 9.7 | 14.5 | 0.00 | 0.00 | 0.00 | 44 | 1003.6 |
| 20260505185716 | 21 | 247 | 9.7 | 14.5 | 0.00 | 0.00 | 0.00 | 43 | 1003.6 |
| 20260505185617 | 21 | 230 | 9.7 | 14.5 | 0.00 | 0.00 | 0.00 | 43 | 1003.5 |
| 20260505185542 | 21 | 243 | 8.0 | 14.5 | 0.00 | 0.00 | 0.00 | 43 | 1002.7 |
| 20260505185447 | 21 | 225 | 8.0 | 16.1 | 0.00 | 0.00 | 0.00 | 43 | 1003.5 |
| 20260505185330 | 21 | 235 | 8.0 | 16.1 | 0.00 | 0.00 | 0.00 | 43 | 1003.5 |
| 20260505185232 | 21 | 222 | 6.4 | 16.1 | 0.00 | 0.00 | 0.00 | 43 | 1003.5 |
| 20260505185109 | 21 | 221 | 6.4 | 16.1 | 0.00 | 0.00 | 0.00 | 43 | 1003.5 |
| 20260505185009 | 21 | 222 | 8.0 | 16.1 | 0.00 | 0.00 | 0.00 | 43 | 1003.6 |
| 20260505184912 | 21 | 217 | 8.0 | 16.1 | 0.00 | 0.00 | 0.00 | 43 | 1003.5 |
| 20260505184816 | 21 | 210 | 9.7 | 24.1 | 0.00 | 0.00 | 0.00 | 43 | 1003.5 |
| 20260505184710 | 21 | 215 | 9.7 | 24.1 | 0.00 | 0.00 | 0.00 | 43 | 1003.5 |
| 20260505184531 | 22 | 220 | 8.0 | 25.7 | 0.00 | 0.00 | 0.00 | 42 | 1003.5 |
| 20260505184439 | 21 | 217 | 9.7 | 25.7 | 0.00 | 0.00 | 0.00 | 43 | 1003.4 |
| 20260505184332 | 22 | 218 | 8.0 | 25.7 | 0.00 | 0.00 | 0.00 | 43 | 1003.5 |
| 20260505184233 | 22 | 193 | 8.0 | 25.7 | 0.00 | 0.00 | 0.00 | 42 | 1003.5 |
| 20260505184136 | 22 | 215 | 14.5 | 25.7 | 0.00 | 0.00 | 0.00 | 43 | 1003.5 |
| 20260505184016 | 22 | 249 | 14.5 | 25.7 | 0.00 | 0.00 | 0.00 | 42 | 1003.5 |
| 20260505183909 | 22 | 235 | 12.9 | 25.7 | 0.00 | 0.00 | 0.00 | 42 | 1003.5 |
| 20260505183755 | 22 | 218 | 12.9 | 25.7 | 0.00 | 0.00 | 0.00 | 42 | 1003.7 |
| 20260505183636 | 22 | 246 | 11.3 | 22.5 | 0.00 | 0.00 | 0.00 | 43 | 1003.5 |
| 20260505183538 | 22 | 219 | 11.3 | 22.5 | 0.00 | 0.00 | 0.00 | 42 | 1003.5 |
| 20260505183411 | 22 | 246 | 8.0 | 22.5 | 0.00 | 0.00 | 0.00 | 42 | 1003.4 |
| 20260505183313 | 22 | 226 | 6.4 | 22.5 | 0.00 | 0.00 | 0.00 | 43 | 1003.4 |
| 20260505183210 | 22 | 218 | 11.3 | 22.5 | 0.00 | 0.00 | 0.00 | 42 | 1003.4 |
| 20260505183113 | 22 | 225 | 12.9 | 22.5 | 0.00 | 0.00 | 0.00 | 42 | 1003.4 |
| 20260505183046 | 21 | 225 | 11.3 | 22.5 | 0.00 | 0.00 | 0.00 | 42 | 1002.5 |
| 20260505183008 | 22 | 237 | 9.7 | 22.5 | 0.00 | 0.00 | 0.00 | 42 | 1003.4 |
| 20260505182912 | 22 | 238 | 9.7 | 14.5 | 0.00 | 0.00 | 0.00 | 42 | 1003.4 |
| 20260505182815 | 22 | 230 | 9.7 | 14.5 | 0.00 | 0.00 | 0.00 | 42 | 1003.4 |
| 20260505182718 | 22 | 237 | 9.7 | 14.5 | 0.00 | 0.00 | 0.00 | 42 | 1003.5 |
| 20260505182651 | 22 | 226 | 8.0 | 16.1 | 0.00 | 0.00 | 0.00 | 42 | 1002.4 |
| 20260505182611 | 22 | 242 | 9.7 | 16.1 | 0.00 | 0.00 | 0.00 | 42 | 1003.4 |
| 20260505182511 | 22 | 232 | 9.7 | 16.1 | 0.00 | 0.00 | 0.00 | 42 | 1003.4 |
| 20260505182355 | 22 | 216 | 9.7 | 16.1 | 0.00 | 0.00 | 0.00 | 42 | 1003.4 |
| 20260505182235 | 22 | 270 | 11.3 | 16.1 | 0.00 | 0.00 | 0.00 | 42 | 1003.4 |
| 20260505182129 | 22 | 230 | 9.7 | 16.1 | 0.00 | 0.00 | 0.00 | 42 | 1003.4 |
| 20260505182009 | 22 | 224 | 11.3 | 16.1 | 0.00 | 0.00 | 0.00 | 41 | 1003.4 |
| 20260505181912 | 22 | 229 | 11.3 | 16.1 | 0.00 | 0.00 | 0.00 | 42 | 1003.4 |
| 20260505181816 | 22 | 203 | 8.0 | 16.1 | 0.00 | 0.00 | 0.00 | 41 | 1003.3 |
| 20260505181649 | 22 | 226 | 8.0 | 14.5 | 0.00 | 0.00 | 0.00 | 41 | 1003.3 |
| 20260505181553 | 22 | 230 | 8.0 | 14.5 | 0.00 | 0.00 | 0.00 | 41 | 1003.3 |
| 20260505181433 | 22 | 207 | 8.0 | 14.5 | 0.00 | 0.00 | 0.00 | 41 | 1003.2 |
| 20260505181336 | 22 | 224 | 8.0 | 14.5 | 0.00 | 0.00 | 0.00 | 41 | 1003.2 |
| 20260505181227 | 22 | 224 | 9.7 | 14.5 | 0.00 | 0.00 | 0.00 | 41 | 1003.2 |
| 20260505181130 | 23 | 202 | 9.7 | 14.5 | 0.00 | 0.00 | 0.00 | 40 | 1003.2 |
| 20260505180948 | 23 | 220 | 8.0 | 16.1 | 0.00 | 0.00 | 0.00 | 41 | 1003.3 |
| 20260505180856 | 23 | 238 | 8.0 | 16.1 | 0.00 | 0.00 | 0.00 | 41 | 1003.2 |
| 20260505180749 | 23 | 230 | 9.7 | 19.3 | 0.00 | 0.00 | 0.00 | 40 | 1003.2 |
| 20260505180654 | 23 | 223 | 9.7 | 19.3 | 0.00 | 0.00 | 0.00 | 40 | 1003.2 |
| 20260505180554 | 23 | 189 | 8.0 | 19.3 | 0.00 | 0.00 | 0.00 | 40 | 1003.2 |
| 20260505180437 | 23 | 214 | 6.4 | 19.3 | 0.00 | 0.00 | 0.00 | 40 | 1003.2 |
| 20260505180332 | 23 | 218 | 8.0 | 19.3 | 0.00 | 0.00 | 0.00 | 40 | 1003.1 |
| 20260505180232 | 23 | 208 | 8.0 | 19.3 | 0.00 | 0.00 | 0.00 | 40 | 1003.1 |
| 20260505180140 | 23 | 228 | 9.7 | 19.3 | 0.00 | 0.00 | 0.00 | 39 | 1003.2 |
| 20260505180041 | 23 | 180 | 11.3 | 19.3 | 0.00 | 0.00 | 0.00 | 39 | 1003.2 |
| 20260505180013 | 23 | 227 | 11.3 | 19.3 | 0.00 | 0.00 | 0.00 | 39 | 1002.2 |
| 20260505175935 | 23 | 206 | 11.3 | 19.3 | 0.00 | 0.00 | 0.00 | 39 | 1003.3 |
| 20260505175836 | 23 | 207 | 6.4 | 14.5 | 0.00 | 0.00 | 0.00 | 39 | 1003.2 |
| 20260505175657 | 23 | 226 | 4.8 | 14.5 | 0.00 | 0.00 | 0.00 | 39 | 1003.1 |
| 20260505175557 | 23 | 210 | 6.4 | 14.5 | 0.00 | 0.00 | 0.00 | 39 | 1003.2 |
| 20260505175536 | 23 | 210 | 6.4 | 14.5 | 0.00 | 0.00 | 0.00 | 39 | 1002.3 |
| 20260505175434 | 23 | 229 | 8.0 | 14.5 | 0.00 | 0.00 | 0.00 | 39 | 1003.2 |
| 20260505175337 | 23 | 172 | 8.0 | 16.1 | 0.00 | 0.00 | 0.00 | 39 | 1003.2 |
| 20260505175229 | 23 | 197 | 6.4 | 16.1 | 0.00 | 0.00 | 0.00 | 39 | 1003.2 |
| 20260505175133 | 23 | 190 | 8.0 | 16.1 | 0.00 | 0.00 | 0.00 | 39 | 1003.2 |
| 20260505175034 | 23 | 218 | 9.7 | 16.1 | 0.00 | 0.00 | 0.00 | 38 | 1003.2 |
| 20260505174933 | 23 | 204 | 8.0 | 16.1 | 0.00 | 0.00 | 0.00 | 38 | 1003.2 |
| 20260505174809 | 24 | 212 | 8.0 | 16.1 | 0.00 | 0.00 | 0.00 | 38 | 1003.3 |
| 20260505174712 | 24 | 197 | 9.7 | 16.1 | 0.00 | 0.00 | 0.00 | 38 | 1003.2 |
| 20260505174616 | 24 | 195 | 9.7 | 16.1 | 0.00 | 0.00 | 0.00 | 38 | 1003.3 |
| 20260505174517 | 24 | 221 | 9.7 | 17.7 | 0.00 | 0.00 | 0.00 | 38 | 1003.2 |
| 20260505174411 | 24 | 191 | 9.7 | 17.7 | 0.00 | 0.00 | 0.00 | 38 | 1003.2 |
| 20260505174254 | 24 | 210 | 9.7 | 16.1 | 0.00 | 0.00 | 0.00 | 38 | 1003.2 |
| 20260505174154 | 24 | 232 | 9.7 | 16.1 | 0.00 | 0.00 | 0.00 | 37 | 1003.2 |
| 20260505174059 | 24 | 204 | 9.7 | 16.1 | 0.00 | 0.00 | 0.00 | 37 | 1003.1 |
| 20260505174024 | 24 | 199 | 8.0 | 16.1 | 0.00 | 0.00 | 0.00 | 37 | 1002.2 |
| 20260505173931 | 25 | 222 | 8.0 | 16.1 | 0.00 | 0.00 | 0.00 | 37 | 1003.2 |
| 20260505173833 | 25 | 203 | 9.7 | 16.1 | 0.00 | 0.00 | 0.00 | 38 | 1003.2 |
| 20260505173736 | 25 | 245 | 8.0 | 16.1 | 0.00 | 0.00 | 0.00 | 37 | 1003.2 |
| 20260505173639 | 25 | 222 | 8.0 | 16.1 | 0.00 | 0.00 | 0.00 | 37 | 1003.2 |
| 20260505173543 | 24 | 237 | 6.4 | 16.1 | 0.00 | 0.00 | 0.00 | 37 | 1002.3 |
| 20260505173510 | 25 | 187 | 6.4 | 16.1 | 0.00 | 0.00 | 0.00 | 38 | 1003.2 |
| 20260505173335 | 25 | 220 | 4.8 | 12.9 | 0.00 | 0.00 | 0.00 | 37 | 1003.2 |
| 20260505173235 | 25 | 216 | 4.8 | 14.5 | 0.00 | 0.00 | 0.00 | 37 | 1003.1 |
| 20260505173145 | 25 | 227 | 4.8 | 14.5 | 0.00 | 0.00 | 0.00 | 37 | 1002.2 |
| 20260505173108 | 25 | 193 | 6.4 | 14.5 | 0.00 | 0.00 | 0.00 | 37 | 1003.2 |
| 20260505173008 | 25 | 211 | 8.0 | 16.1 | 0.00 | 0.00 | 0.00 | 37 | 1003.1 |
| 20260505172911 | 25 | 189 | 6.4 | 16.1 | 0.00 | 0.00 | 0.00 | 37 | 1003.2 |
| 20260505172815 | 25 | 193 | 4.8 | 16.1 | 0.00 | 0.00 | 0.00 | 37 | 1003.1 |
| 20260505172632 | 25 | 225 | 6.4 | 16.1 | 0.00 | 0.00 | 0.00 | 37 | 1003.0 |
| 20260505172534 | 25 | 220 | 8.0 | 16.1 | 0.00 | 0.00 | 0.00 | 37 | 1003.1 |
| 20260505172502 | 25 | 228 | 8.0 | 16.1 | 0.00 | 0.00 | 0.00 | 36 | 1002.2 |
| 20260505172427 | 25 | 230 | 8.0 | 16.1 | 0.00 | 0.00 | 0.00 | 36 | 1003.2 |
| 20260505172308 | 25 | 228 | 8.0 | 16.1 | 0.00 | 0.00 | 0.00 | 37 | 1003.2 |
| 20260505172210 | 25 | 191 | 8.0 | 17.7 | 0.00 | 0.00 | 0.00 | 37 | 1003.1 |
| 20260505172111 | 25 | 198 | 4.8 | 14.5 | 0.00 | 0.00 | 0.00 | 36 | 1003.1 |
| 20260505172021 | 25 | 218 | 4.8 | 14.5 | 0.00 | 0.00 | 0.00 | 36 | 1002.2 |
| 20260505171948 | 25 | 214 | 8.0 | 14.5 | 0.00 | 0.00 | 0.00 | 36 | 1003.1 |
| 20260505171850 | 25 | 215 | 8.0 | 14.5 | 0.00 | 0.00 | 0.00 | 36 | 1003.1 |
| 20260505171754 | 25 | 224 | 8.0 | 14.5 | 0.00 | 0.00 | 0.00 | 36 | 1003.1 |
| 20260505171657 | 25 | 203 | 6.4 | 14.5 | 0.00 | 0.00 | 0.00 | 36 | 1003.1 |
| 20260505171622 | 25 | 197 | 6.4 | 14.5 | 0.00 | 0.00 | 0.00 | 36 | 1002.2 |
| 20260505171419 | 25 | 218 | 4.8 | 14.5 | 0.00 | 0.00 | 0.00 | 36 | 1003.1 |
| 20260505171322 | 25 | 193 | 3.2 | 14.5 | 0.00 | 0.00 | 0.00 | 36 | 1003.1 |
| 20260505171226 | 25 | 209 | 4.8 | 14.5 | 0.00 | 0.00 | 0.00 | 36 | 1003.1 |
| 20260505171158 | 25 | 187 | 4.8 | 14.5 | 0.00 | 0.00 | 0.00 | 36 | 1002.2 |
| 20260505171120 | 25 | 172 | 8.0 | 14.5 | 0.00 | 0.00 | 0.00 | 36 | 1003.1 |
| 20260505171022 | 25 | 203 | 8.0 | 14.5 | 0.00 | 0.00 | 0.00 | 36 | 1003.2 |
| 20260505170906 | 25 | 227 | 6.4 | 14.5 | 0.00 | 0.00 | 0.00 | 36 | 1003.2 |
| 20260505170810 | 25 | 168 | 6.4 | 14.5 | 0.00 | 0.00 | 0.00 | 36 | 1003.1 |
| 20260505170703 | 25 | 209 | 6.4 | 14.5 | 0.00 | 0.00 | 0.00 | 36 | 1003.2 |
| 20260505170607 | 25 | 218 | 4.8 | 11.3 | 0.00 | 0.00 | 0.00 | 36 | 1003.1 |
| 20260505170513 | 25 | 211 | 4.8 | 11.3 | 0.00 | 0.00 | 0.00 | 37 | 1003.1 |
| 20260505170415 | 25 | 195 | 6.4 | 17.7 | 0.00 | 0.00 | 0.00 | 37 | 1003.1 |
| 20260505170308 | 25 | 210 | 6.4 | 17.7 | 0.00 | 0.00 | 0.00 | 35 | 1003.2 |
| 20260505170209 | 25 | 207 | 6.4 | 17.7 | 0.00 | 0.00 | 0.00 | 35 | 1003.1 |
| 20260505170110 | 25 | 178 | 4.8 | 17.7 | 0.00 | 0.00 | 0.00 | 36 | 1003.2 |
| 20260505165833 | 25 | 168 | 4.8 | 17.7 | 0.00 | 0.00 | 0.00 | 35 | 1003.3 |
| 20260505165739 | 25 | 224 | 6.4 | 17.7 | 0.00 | 0.00 | 0.00 | 35 | 1003.2 |
| 20260505165643 | 25 | 197 | 8.0 | 17.7 | 0.00 | 0.00 | 0.00 | 35 | 1003.3 |
| 20260505165543 | 25 | 227 | 8.0 | 11.3 | 0.00 | 0.00 | 0.00 | 35 | 1003.3 |
| 20260505165526 | 25 | 216 | 6.4 | 11.3 | 0.00 | 0.00 | 0.00 | 35 | 1002.3 |
| 20260505165437 | 25 | 207 | 6.4 | 11.3 | 0.00 | 0.00 | 0.00 | 35 | 1003.3 |
| 20260505165338 | 25 | 219 | 3.2 | 12.9 | 0.00 | 0.00 | 0.00 | 35 | 1003.3 |
| 20260505165158 | 25 | 216 | 3.2 | 12.9 | 0.00 | 0.00 | 0.00 | 36 | 1003.3 |
| 20260505165120 | 25 | 216 | 3.2 | 12.9 | 0.00 | 0.00 | 0.00 | 36 | 1002.3 |
| 20260505165033 | 25 | 216 | 3.2 | 14.5 | 0.00 | 0.00 | 0.00 | 36 | 1003.3 |
| 20260505164936 | 25 | 213 | 4.8 | 19.3 | 0.00 | 0.00 | 0.00 | 35 | 1003.3 |
| 20260505164839 | 25 | 215 | 8.0 | 19.3 | 0.00 | 0.00 | 0.00 | 35 | 1003.3 |
| 20260505164710 | 25 | 230 | 8.0 | 19.3 | 0.00 | 0.00 | 0.00 | 35 | 1003.3 |
| 20260505164612 | 25 | 234 | 8.0 | 19.3 | 0.00 | 0.00 | 0.00 | 35 | 1003.3 |
| 20260505164452 | 25 | 213 | 8.0 | 19.3 | 0.00 | 0.00 | 0.00 | 34 | 1003.3 |
| 20260505164359 | 25 | 176 | 8.0 | 19.3 | 0.00 | 0.00 | 0.00 | 34 | 1003.3 |
| 20260505164304 | 25 | 182 | 9.7 | 19.3 | 0.00 | 0.00 | 0.00 | 34 | 1003.3 |
| 20260505164147 | 26 | 240 | 9.7 | 19.3 | 0.00 | 0.00 | 0.00 | 34 | 1003.3 |
| 20260505164049 | 26 | 181 | 8.0 | 16.1 | 0.00 | 0.00 | 0.00 | 34 | 1003.3 |
| 20260505163952 | 26 | 202 | 6.4 | 16.1 | 0.00 | 0.00 | 0.00 | 34 | 1003.2 |
| 20260505163853 | 26 | 213 | 8.0 | 16.1 | 0.00 | 0.00 | 0.00 | 35 | 1003.3 |
| 20260505163747 | 26 | 222 | 8.0 | 14.5 | 0.00 | 0.00 | 0.00 | 34 | 1003.3 |
| 20260505163654 | 26 | 166 | 8.0 | 22.5 | 0.00 | 0.00 | 0.00 | 34 | 1003.2 |
| 20260505163556 | 26 | 199 | 8.0 | 22.5 | 0.00 | 0.00 | 0.00 | 33 | 1003.3 |
| 20260505163458 | 26 | 210 | 8.0 | 22.5 | 0.00 | 0.00 | 0.00 | 33 | 1003.3 |
| 20260505163352 | 26 | 202 | 9.7 | 22.5 | 0.00 | 0.00 | 0.00 | 34 | 1003.3 |
| 20260505163255 | 26 | 220 | 9.7 | 22.5 | 0.00 | 0.00 | 0.00 | 34 | 1003.3 |
| 20260505163157 | 26 | 230 | 8.0 | 22.5 | 0.00 | 0.00 | 0.00 | 33 | 1003.3 |
| 20260505163102 | 26 | 189 | 8.0 | 22.5 | 0.00 | 0.00 | 0.00 | 33 | 1003.3 |
| 20260505162945 | 26 | 208 | 12.9 | 22.5 | 0.00 | 0.00 | 0.00 | 33 | 1003.3 |
| 20260505162816 | 26 | 222 | 12.9 | 25.7 | 0.00 | 0.00 | 0.00 | 34 | 1003.2 |
| 20260505162718 | 26 | 245 | 11.3 | 22.5 | 0.00 | 0.00 | 0.00 | 34 | 1003.3 |
| 20260505162518 | 26 | 201 | 8.0 | 22.5 | 0.00 | 0.00 | 0.00 | 34 | 1002.4 |
| 20260505162441 | 26 | 235 | 8.0 | 22.5 | 0.00 | 0.00 | 0.00 | 34 | 1003.3 |
| 20260505162343 | 26 | 218 | 11.3 | 22.5 | 0.00 | 0.00 | 0.00 | 34 | 1003.3 |
| 20260505162227 | 26 | 236 | 12.9 | 22.5 | 0.00 | 0.00 | 0.00 | 33 | 1003.3 |
| 20260505162131 | 26 | 213 | 11.3 | 22.5 | 0.00 | 0.00 | 0.00 | 34 | 1003.3 |
| 20260505162056 | 26 | 241 | 9.7 | 20.9 | 0.00 | 0.00 | 0.00 | 34 | 1002.4 |
| 20260505162020 | 26 | 206 | 8.0 | 17.7 | 0.00 | 0.00 | 0.00 | 33 | 1003.3 |
| 20260505161903 | 26 | 180 | 11.3 | 17.7 | 0.00 | 0.00 | 0.00 | 34 | 1003.4 |
| 20260505161745 | 26 | 221 | 9.7 | 20.9 | 0.00 | 0.00 | 0.00 | 35 | 1003.3 |
| 20260505161628 | 26 | 223 | 9.7 | 20.9 | 0.00 | 0.00 | 0.00 | 34 | 1003.3 |
| 20260505161534 | 26 | 218 | 9.7 | 20.9 | 0.00 | 0.00 | 0.00 | 34 | 1002.4 |
| 20260505161457 | 26 | 196 | 11.3 | 20.9 | 0.00 | 0.00 | 0.00 | 33 | 1003.4 |
| 20260505161343 | 26 | 202 | 11.3 | 20.9 | 0.00 | 0.00 | 0.00 | 34 | 1003.4 |
| 20260505161246 | 26 | 218 | 11.3 | 20.9 | 0.00 | 0.00 | 0.00 | 35 | 1003.4 |
| 20260505161147 | 26 | 234 | 11.3 | 20.9 | 0.00 | 0.00 | 0.00 | 34 | 1003.5 |
| 20260505161026 | 26 | 232 | 8.0 | 16.1 | 0.00 | 0.00 | 0.00 | 36 | 1003.4 |
| 20260505161005 | 26 | 232 | 8.0 | 16.1 | 0.00 | 0.00 | 0.00 | 35 | 1002.5 |
| 20260505160921 | 26 | 214 | 9.7 | 16.1 | 0.00 | 0.00 | 0.00 | 35 | 1003.4 |
| 20260505160656 | 26 | 213 | 11.3 | 17.7 | 0.00 | 0.00 | 0.00 | 33 | 1003.4 |
| 20260505160621 | 26 | 224 | 11.3 | 17.7 | 0.00 | 0.00 | 0.00 | 33 | 1002.5 |
| 20260505160532 | 26 | 251 | 11.3 | 17.7 | 0.00 | 0.00 | 0.00 | 34 | 1003.5 |
| 20260505160435 | 26 | 218 | 8.0 | 17.7 | 0.00 | 0.00 | 0.00 | 34 | 1003.5 |
| 20260505160316 | 26 | 210 | 6.4 | 17.7 | 0.00 | 0.00 | 0.00 | 33 | 1003.4 |
| 20260505160208 | 26 | 209 | 8.0 | 17.7 | 0.00 | 0.00 | 0.00 | 33 | 1003.5 |
| 20260505160109 | 26 | 194 | 11.3 | 17.7 | 0.00 | 0.00 | 0.00 | 33 | 1003.5 |
| 20260505153259 | 27 | 217 | 12.9 | 32.2 | 0.00 | 0.00 | 0.00 | 32 | 1003.7 |
| 20260505153200 | 27 | 202 | 12.9 | 32.2 | 0.00 | 0.00 | 0.00 | 32 | 1003.7 |
| 20260505153101 | 27 | 218 | 11.3 | 32.2 | 0.00 | 0.00 | 0.00 | 32 | 1003.6 |
| 20260505153008 | 27 | 235 | 11.3 | 32.2 | 0.00 | 0.00 | 0.00 | 31 | 1003.6 |
| 20260505152902 | 27 | 213 | 11.3 | 33.8 | 0.00 | 0.00 | 0.00 | 31 | 1003.7 |
| 20260505152743 | 27 | 209 | 17.7 | 33.8 | 0.00 | 0.00 | 0.00 | 31 | 1003.7 |
| 20260505152644 | 27 | 240 | 19.3 | 33.8 | 0.00 | 0.00 | 0.00 | 31 | 1003.7 |
| 20260505152523 | 27 | 238 | 14.5 | 33.8 | 0.00 | 0.00 | 0.00 | 31 | 1003.7 |
| 20260505152356 | 27 | 212 | 17.7 | 33.8 | 0.00 | 0.00 | 0.00 | 31 | 1003.7 |
| 20260505152305 | 27 | 239 | 19.3 | 33.8 | 0.00 | 0.00 | 0.00 | 31 | 1003.7 |
| 20260505152204 | 27 | 244 | 22.5 | 33.8 | 0.00 | 0.00 | 0.00 | 31 | 1003.8 |
| 20260505152106 | 28 | 192 | 24.1 | 33.8 | 0.00 | 0.00 | 0.00 | 31 | 1003.9 |
| 20260505152033 | 27 | 230 | 20.9 | 33.8 | 0.00 | 0.00 | 0.00 | 31 | 1002.7 |
| 20260505151937 | 28 | 238 | 17.7 | 27.4 | 0.00 | 0.00 | 0.00 | 32 | 1003.7 |
| 20260505151840 | 28 | 182 | 16.1 | 27.4 | 0.00 | 0.00 | 0.00 | 33 | 1003.7 |
| 20260505151719 | 27 | 236 | 12.9 | 27.4 | 0.00 | 0.00 | 0.00 | 32 | 1003.8 |
| 20260505151622 | 27 | 182 | 11.3 | 27.4 | 0.00 | 0.00 | 0.00 | 32 | 1003.7 |
| 20260505151552 | 27 | 208 | 11.3 | 27.4 | 0.00 | 0.00 | 0.00 | 32 | 1002.9 |
| 20260505151517 | 27 | 236 | 12.9 | 27.4 | 0.00 | 0.00 | 0.00 | 33 | 1003.8 |
| 20260505151359 | 27 | 210 | 16.1 | 27.4 | 0.00 | 0.00 | 0.00 | 33 | 1003.7 |
| 20260505151301 | 27 | 228 | 16.1 | 25.7 | 0.00 | 0.00 | 0.00 | 33 | 1003.7 |
| 20260505151143 | 27 | 235 | 14.5 | 24.1 | 0.00 | 0.00 | 0.00 | 32 | 1003.8 |
| 20260505151113 | 27 | 236 | 12.9 | 24.1 | 0.00 | 0.00 | 0.00 | 32 | 1002.9 |
| 20260505151034 | 27 | 205 | 12.9 | 24.1 | 0.00 | 0.00 | 0.00 | 34 | 1003.8 |
| 20260505150914 | 27 | 205 | 12.9 | 22.5 | 0.00 | 0.00 | 0.00 | 34 | 1003.8 |
| 20260505150759 | 26 | 216 | 8.0 | 14.5 | 0.00 | 0.00 | 0.00 | 34 | 1003.8 |
| 20260505150700 | 26 | 210 | 8.0 | 12.9 | 0.00 | 0.00 | 0.00 | 34 | 1003.7 |
| 20260505150631 | 26 | 231 | 8.0 | 12.9 | 0.00 | 0.00 | 0.00 | 34 | 1002.8 |
| 20260505150530 | 26 | 242 | 4.8 | 11.3 | 0.00 | 0.00 | 0.00 | 33 | 1003.8 |
| 20260505150435 | 26 | 140 | 4.8 | 16.1 | 0.00 | 0.00 | 0.00 | 34 | 1003.8 |
| 20260505150327 | 26 | 216 | 4.8 | 16.1 | 0.00 | 0.00 | 0.00 | 34 | 1003.8 |
| 20260505150207 | 26 | 197 | 3.2 | 17.7 | 0.00 | 0.00 | 0.00 | 35 | 1003.8 |
| 20260505150115 | 26 | 197 | 6.4 | 17.7 | 0.00 | 0.00 | 0.00 | 34 | 1003.8 |
| 20260505140634 | 28 | 103 | 6.4 | 17.7 | 0.00 | 0.00 | 0.00 | 31 | 1003.8 |
| 20260505140515 | 28 | 73 | 4.8 | 17.7 | 0.00 | 0.00 | 0.00 | 33 | 1003.8 |
| 20260505140413 | 28 | 100 | 1.6 | 17.7 | 0.00 | 0.00 | 0.00 | 32 | 1003.8 |
| 20260505140256 | 28 | 80 | 3.2 | 17.7 | 0.00 | 0.00 | 0.00 | 33 | 1003.8 |
| 20260505140158 | 28 | 80 | 8.0 | 17.7 | 0.00 | 0.00 | 0.00 | 33 | 1003.9 |
| 20260505140117 | 28 | 79 | 9.7 | 17.7 | 0.00 | 0.00 | 0.00 | 31 | 1002.9 |
| 20260505130253 | 27 | 78 | 9.7 | 20.9 | 0.00 | 0.00 | 0.00 | 36 | 1004.7 |
| 20260505130153 | 27 | 62 | 12.9 | 20.9 | 0.00 | 0.00 | 0.00 | 36 | 1004.7 |
| 20260505125009 | 27 | 55 | 9.7 | 19.3 | 0.00 | 0.00 | 0.00 | 37 | 1004.8 |
| 20260505124912 | 27 | 88 | 9.7 | 19.3 | 0.00 | 0.00 | 0.00 | 38 | 1004.9 |
| 20260505124815 | 27 | 84 | 8.0 | 19.3 | 0.00 | 0.00 | 0.00 | 37 | 1004.8 |
| 20260505124708 | 27 | 97 | 6.4 | 19.3 | 0.00 | 0.00 | 0.00 | 38 | 1004.8 |
| 20260505124616 | 27 | 72 | 6.4 | 19.3 | 0.00 | 0.00 | 0.00 | 37 | 1004.8 |
| 20260505124515 | 27 | 90 | 9.7 | 27.4 | 0.00 | 0.00 | 0.00 | 37 | 1004.9 |
| 20260505124354 | 27 | 68 | 11.3 | 27.4 | 0.00 | 0.00 | 0.00 | 37 | 1005.0 |
| 20260505124249 | 27 | 44 | 11.3 | 27.4 | 0.00 | 0.00 | 0.00 | 37 | 1004.9 |
| 20260505124148 | 27 | 93 | 11.3 | 27.4 | 0.00 | 0.00 | 0.00 | 37 | 1004.9 |
| 20260505124050 | 27 | 64 | 11.3 | 27.4 | 0.00 | 0.00 | 0.00 | 37 | 1004.9 |
| 20260505123953 | 27 | 49 | 8.0 | 27.4 | 0.00 | 0.00 | 0.00 | 38 | 1005.0 |
| 20260505123829 | 27 | 97 | 9.7 | 27.4 | 0.00 | 0.00 | 0.00 | 36 | 1005.0 |
| 20260505123732 | 27 | 60 | 11.3 | 27.4 | 0.00 | 0.00 | 0.00 | 37 | 1005.0 |
| 20260505123635 | 27 | 98 | 9.7 | 27.4 | 0.00 | 0.00 | 0.00 | 38 | 1005.0 |
| 20260505123535 | 27 | 43 | 8.0 | 17.7 | 0.00 | 0.00 | 0.00 | 37 | 1005.0 |
| 20260505123511 | 27 | 66 | 8.0 | 17.7 | 0.00 | 0.00 | 0.00 | 37 | 1004.1 |
| 20260505123427 | 27 | 70 | 9.7 | 17.7 | 0.00 | 0.00 | 0.00 | 38 | 1005.1 |
| 20260505123307 | 27 | 69 | 9.7 | 17.7 | 0.00 | 0.00 | 0.00 | 38 | 1005.1 |
| 20260505123213 | 27 | 6 | 8.0 | 17.7 | 0.00 | 0.00 | 0.00 | 39 | 1005.1 |
| 20260505123115 | 27 | 72 | 4.8 | 17.7 | 0.00 | 0.00 | 0.00 | 38 | 1005.1 |
| 20260505123105 | 26 | 107 | 6.4 | 17.7 | 0.00 | 0.00 | 0.00 | 38 | 1004.3 |
| 20260505123007 | 27 | 270 | 6.4 | 17.7 | 0.00 | 0.00 | 0.00 | 38 | 1005.2 |
| 20260505122849 | 26 | 56 | 6.4 | 20.9 | 0.00 | 0.00 | 0.00 | 39 | 1005.2 |
| 20260505122752 | 26 | 59 | 8.0 | 20.9 | 0.00 | 0.00 | 0.00 | 38 | 1005.2 |
| 20260505122653 | 26 | 40 | 9.7 | 20.9 | 0.00 | 0.00 | 0.00 | 37 | 1005.2 |
| 20260505122629 | 26 | 125 | 9.7 | 20.9 | 0.00 | 0.00 | 0.00 | 38 | 1004.3 |
| 20260505122545 | 26 | 41 | 11.3 | 20.9 | 0.00 | 0.00 | 0.00 | 37 | 1005.2 |
| 20260505122451 | 26 | 45 | 11.3 | 20.9 | 0.00 | 0.00 | 0.00 | 37 | 1005.2 |
| 20260505122332 | 26 | 97 | 8.0 | 20.9 | 0.00 | 0.00 | 0.00 | 39 | 1005.2 |
| 20260505122233 | 26 | 6 | 8.0 | 20.9 | 0.00 | 0.00 | 0.00 | 39 | 1005.3 |
| 20260505122107 | 26 | 85 | 11.3 | 20.9 | 0.00 | 0.00 | 0.00 | 38 | 1005.3 |
| 20260505122007 | 26 | 6 | 12.9 | 20.9 | 0.00 | 0.00 | 0.00 | 37 | 1005.3 |
| 20260505121910 | 26 | 66 | 9.7 | 17.7 | 0.00 | 0.00 | 0.00 | 38 | 1005.3 |
| 20260505121817 | 26 | 107 | 8.0 | 19.3 | 0.00 | 0.00 | 0.00 | 39 | 1005.3 |
| 20260505121710 | 26 | 55 | 8.0 | 19.3 | 0.00 | 0.00 | 0.00 | 38 | 1005.4 |
| 20260505121610 | 26 | 60 | 11.3 | 19.3 | 0.00 | 0.00 | 0.00 | 38 | 1005.4 |
| 20260505121452 | 26 | 49 | 11.3 | 19.3 | 0.00 | 0.00 | 0.00 | 38 | 1005.4 |
| 20260505121347 | 26 | 55 | 9.7 | 19.3 | 0.00 | 0.00 | 0.00 | 38 | 1005.4 |
| 20260505121250 | 26 | 54 | 9.7 | 19.3 | 0.00 | 0.00 | 0.00 | 38 | 1005.4 |
| 20260505121133 | 26 | 6 | 11.3 | 19.3 | 0.00 | 0.00 | 0.00 | 38 | 1005.4 |
| 20260505121039 | 26 | 75 | 11.3 | 19.3 | 0.00 | 0.00 | 0.00 | 37 | 1005.5 |
| 20260505121008 | 26 | 47 | 11.3 | 19.3 | 0.00 | 0.00 | 0.00 | 39 | 1004.6 |
| 20260505120933 | 26 | 68 | 11.3 | 17.7 | 0.00 | 0.00 | 0.00 | 39 | 1005.5 |
| 20260505120834 | 26 | 85 | 9.7 | 22.5 | 0.00 | 0.00 | 0.00 | 39 | 1005.6 |
| 20260505120737 | 26 | 79 | 8.0 | 22.5 | 0.00 | 0.00 | 0.00 | 37 | 1005.5 |
| 20260505120619 | 26 | 95 | 11.3 | 22.5 | 0.00 | 0.00 | 0.00 | 38 | 1005.5 |
| 20260505120551 | 26 | 112 | 11.3 | 22.5 | 0.00 | 0.00 | 0.00 | 36 | 1004.7 |
| 20260505120509 | 26 | 93 | 12.9 | 22.5 | 0.00 | 0.00 | 0.00 | 36 | 1005.6 |
| 20260505120417 | 26 | 77 | 12.9 | 22.5 | 0.00 | 0.00 | 0.00 | 37 | 1005.6 |
| 20260505120320 | 26 | 113 | 9.7 | 22.5 | 0.00 | 0.00 | 0.00 | 37 | 1005.7 |
| 20260505120201 | 26 | 85 | 11.3 | 22.5 | 0.00 | 0.00 | 0.00 | 37 | 1005.7 |
| 20260505120113 | 26 | 91 | 11.3 | 22.5 | 0.00 | 0.00 | 0.00 | 37 | 1004.7 |
| 20260505120032 | 26 | 357 | 11.3 | 22.5 | 0.00 | 0.00 | 0.00 | 38 | 1005.7 |
| 20260505115914 | 26 | 68 | 12.9 | 22.5 | 0.00 | 0.00 | 0.00 | 38 | 1005.7 |
| 20260505115756 | 26 | 70 | 14.5 | 22.5 | 0.00 | 0.00 | 0.00 | 38 | 1005.8 |
| 20260505115633 | 26 | 77 | 12.9 | 22.5 | 0.00 | 0.00 | 0.00 | 38 | 1005.8 |
| 20260505115534 | 26 | 79 | 16.1 | 22.5 | 0.00 | 0.00 | 0.00 | 39 | 1005.7 |
| 20260505115437 | 26 | 101 | 14.5 | 27.4 | 0.00 | 0.00 | 0.00 | 38 | 1005.8 |
| 20260505115308 | 26 | 61 | 12.9 | 27.4 | 0.00 | 0.00 | 0.00 | 39 | 1005.8 |
| 20260505115149 | 26 | 103 | 16.1 | 27.4 | 0.00 | 0.00 | 0.00 | 39 | 1005.8 |
| 20260505115031 | 26 | 90 | 12.9 | 27.4 | 0.00 | 0.00 | 0.00 | 37 | 1005.9 |
| 20260505115007 | 26 | 76 | 11.3 | 27.4 | 0.00 | 0.00 | 0.00 | 37 | 1004.9 |
| 20260505114928 | 26 | 91 | 12.9 | 27.4 | 0.00 | 0.00 | 0.00 | 36 | 1005.8 |
| 20260505114831 | 26 | 59 | 17.7 | 27.4 | 0.00 | 0.00 | 0.00 | 36 | 1005.9 |
| 20260505114712 | 26 | 104 | 16.1 | 27.4 | 0.00 | 0.00 | 0.00 | 36 | 1005.8 |
| 20260505114615 | 26 | 85 | 14.5 | 27.4 | 0.00 | 0.00 | 0.00 | 36 | 1005.9 |
| 20260505114604 | 26 | 74 | 12.9 | 24.1 | 0.00 | 0.00 | 0.00 | 36 | 1004.9 |
| 20260505114503 | 26 | 71 | 12.9 | 24.1 | 0.00 | 0.00 | 0.00 | 36 | 1005.9 |
| 20260505114406 | 26 | 76 | 12.9 | 24.1 | 0.00 | 0.00 | 0.00 | 37 | 1005.9 |
| 20260505114310 | 26 | 90 | 12.9 | 25.7 | 0.00 | 0.00 | 0.00 | 38 | 1005.9 |
| 20260505114215 | 26 | 71 | 12.9 | 25.7 | 0.00 | 0.00 | 0.00 | 39 | 1005.9 |
| 20260505114151 | 26 | 92 | 11.3 | 25.7 | 0.00 | 0.00 | 0.00 | 38 | 1005.0 |
| 20260505114109 | 26 | 78 | 11.3 | 25.7 | 0.00 | 0.00 | 0.00 | 39 | 1005.9 |
| 20260505114010 | 26 | 76 | 11.3 | 25.7 | 0.00 | 0.00 | 0.00 | 39 | 1006.0 |
| 20260505113913 | 26 | 116 | 14.5 | 25.7 | 0.00 | 0.00 | 0.00 | 38 | 1005.9 |
| 20260505113817 | 26 | 89 | 16.1 | 25.7 | 0.00 | 0.00 | 0.00 | 38 | 1005.9 |
| 20260505113712 | 26 | 70 | 16.1 | 25.7 | 0.00 | 0.00 | 0.00 | 41 | 1005.9 |
| 20260505113615 | 26 | 87 | 16.1 | 25.7 | 0.00 | 0.00 | 0.00 | 39 | 1005.9 |
| 20260505113435 | 26 | 47 | 16.1 | 24.1 | 0.00 | 0.00 | 0.00 | 39 | 1005.9 |
| 20260505113338 | 26 | 103 | 14.5 | 24.1 | 0.00 | 0.00 | 0.00 | 41 | 1006.0 |
| 20260505113210 | 26 | 85 | 12.9 | 22.5 | 0.00 | 0.00 | 0.00 | 41 | 1006.0 |
| 20260505113112 | 26 | 98 | 12.9 | 22.5 | 0.00 | 0.00 | 0.00 | 40 | 1006.1 |
| 20260505113014 | 26 | 93 | 14.5 | 22.5 | 0.00 | 0.00 | 0.00 | 41 | 1006.1 |
| 20260505112906 | 26 | 87 | 14.5 | 20.9 | 0.00 | 0.00 | 0.00 | 41 | 1006.1 |
| 20260505112814 | 26 | 100 | 12.9 | 20.9 | 0.00 | 0.00 | 0.00 | 42 | 1006.1 |
| 20260505112653 | 26 | 126 | 11.3 | 20.9 | 0.00 | 0.00 | 0.00 | 42 | 1006.2 |
| 20260505112554 | 26 | 100 | 11.3 | 20.9 | 0.00 | 0.00 | 0.00 | 40 | 1006.2 |
| 20260505112457 | 26 | 88 | 12.9 | 20.9 | 0.00 | 0.00 | 0.00 | 40 | 1006.1 |
| 20260505112350 | 26 | 73 | 12.9 | 22.5 | 0.00 | 0.00 | 0.00 | 41 | 1006.2 |
| 20260505112231 | 26 | 89 | 11.3 | 22.5 | 0.00 | 0.00 | 0.00 | 42 | 1006.2 |
| 20260505112138 | 26 | 89 | 11.3 | 22.5 | 0.00 | 0.00 | 0.00 | 41 | 1006.2 |
| 20260505112038 | 26 | 106 | 11.3 | 22.5 | 0.00 | 0.00 | 0.00 | 42 | 1006.2 |
| 20260505112015 | 25 | 89 | 9.7 | 22.5 | 0.00 | 0.00 | 0.00 | 42 | 1005.3 |
| 20260505111932 | 26 | 85 | 12.9 | 22.5 | 0.00 | 0.00 | 0.00 | 42 | 1006.2 |
| 20260505111834 | 26 | 65 | 12.9 | 22.5 | 0.00 | 0.00 | 0.00 | 42 | 1006.2 |
| 20260505111736 | 26 | 111 | 12.9 | 22.5 | 0.00 | 0.00 | 0.00 | 43 | 1006.2 |
| 20260505111619 | 26 | 112 | 14.5 | 22.5 | 0.00 | 0.00 | 0.00 | 43 | 1006.2 |
| 20260505111605 | 25 | 89 | 12.9 | 22.5 | 0.00 | 0.00 | 0.00 | 43 | 1005.3 |
| 20260505111510 | 25 | 100 | 14.5 | 22.5 | 0.00 | 0.00 | 0.00 | 43 | 1006.2 |
| 20260505111417 | 25 | 58 | 12.9 | 20.9 | 0.00 | 0.00 | 0.00 | 43 | 1006.3 |
| 20260505111259 | 25 | 85 | 11.3 | 25.7 | 0.00 | 0.00 | 0.00 | 43 | 1006.3 |
| 20260505111201 | 25 | 90 | 11.3 | 25.7 | 0.00 | 0.00 | 0.00 | 43 | 1006.3 |
| 20260505111138 | 25 | 105 | 11.3 | 25.7 | 0.00 | 0.00 | 0.00 | 43 | 1005.4 |
| 20260505111051 | 25 | 83 | 12.9 | 25.7 | 0.00 | 0.00 | 0.00 | 42 | 1006.3 |
| 20260505110953 | 25 | 97 | 11.3 | 25.7 | 0.00 | 0.00 | 0.00 | 42 | 1006.3 |
| 20260505110857 | 25 | 50 | 12.9 | 25.7 | 0.00 | 0.00 | 0.00 | 42 | 1006.3 |
| 20260505110803 | 25 | 68 | 14.5 | 25.7 | 0.00 | 0.00 | 0.00 | 43 | 1006.3 |
| 20260505110655 | 25 | 115 | 16.1 | 25.7 | 0.00 | 0.00 | 0.00 | 42 | 1006.4 |
| 20260505110556 | 25 | 108 | 17.7 | 25.7 | 0.00 | 0.00 | 0.00 | 42 | 1006.4 |
| 20260505110500 | 25 | 105 | 16.1 | 25.7 | 0.00 | 0.00 | 0.00 | 42 | 1006.3 |
| 20260505110404 | 25 | 64 | 12.9 | 22.5 | 0.00 | 0.00 | 0.00 | 43 | 1006.3 |
| 20260505110255 | 25 | 57 | 9.7 | 22.5 | 0.00 | 0.00 | 0.00 | 42 | 1006.3 |
| 20260505110136 | 25 | 69 | 12.9 | 22.5 | 0.00 | 0.00 | 0.00 | 42 | 1006.4 |
| 20260505102137 | 25 | 144 | 9.7 | 19.3 | 0.00 | 0.00 | 0.00 | 44 | 1007.1 |
| 20260505102037 | 25 | 117 | 9.7 | 19.3 | 0.00 | 0.00 | 0.00 | 43 | 1007.0 |
| 20260505101938 | 25 | 100 | 11.3 | 19.3 | 0.00 | 0.00 | 0.00 | 42 | 1007.0 |
| 20260505101830 | 25 | 78 | 11.3 | 19.3 | 0.00 | 0.00 | 0.00 | 42 | 1007.0 |
| 20260505101716 | 25 | 110 | 12.9 | 22.5 | 0.00 | 0.00 | 0.00 | 42 | 1007.1 |
| 20260505101619 | 25 | 103 | 14.5 | 22.5 | 0.00 | 0.00 | 0.00 | 42 | 1007.1 |
| 20260505101544 | 24 | 68 | 12.9 | 22.5 | 0.00 | 0.00 | 0.00 | 43 | 1006.2 |
| 20260505101509 | 25 | 86 | 14.5 | 22.5 | 0.00 | 0.00 | 0.00 | 43 | 1007.1 |
| 20260505101351 | 25 | 77 | 12.9 | 22.5 | 0.00 | 0.00 | 0.00 | 43 | 1007.2 |
| 20260505101253 | 25 | 74 | 11.3 | 22.5 | 0.00 | 0.00 | 0.00 | 44 | 1007.1 |
| 20260505101115 | 25 | 59 | 12.9 | 22.5 | 0.00 | 0.00 | 0.00 | 44 | 1007.2 |
| 20260505101042 | 24 | 82 | 14.5 | 22.5 | 0.00 | 0.00 | 0.00 | 43 | 1006.4 |
| 20260505101005 | 25 | 99 | 14.5 | 22.5 | 0.00 | 0.00 | 0.00 | 43 | 1007.3 |
| 20260505100851 | 24 | 87 | 9.7 | 20.9 | 0.00 | 0.00 | 0.00 | 44 | 1007.2 |
| 20260505100754 | 24 | 70 | 8.0 | 20.9 | 0.00 | 0.00 | 0.00 | 43 | 1007.2 |
| 20260505100658 | 24 | 93 | 11.3 | 20.9 | 0.00 | 0.00 | 0.00 | 45 | 1007.2 |
| 20260505100559 | 24 | 108 | 11.3 | 20.9 | 0.00 | 0.00 | 0.00 | 45 | 1006.4 |
| 20260505100527 | 24 | 95 | 12.9 | 20.9 | 0.00 | 0.00 | 0.00 | 45 | 1007.3 |
| 20260505100409 | 24 | 99 | 11.3 | 19.3 | 0.00 | 0.00 | 0.00 | 44 | 1007.3 |
| 20260505100312 | 24 | 97 | 9.7 | 19.3 | 0.00 | 0.00 | 0.00 | 45 | 1007.3 |
| 20260505100157 | 24 | 86 | 11.3 | 19.3 | 0.00 | 0.00 | 0.00 | 44 | 1007.3 |
| 20260505100117 | 23 | 120 | 9.7 | 19.3 | 0.00 | 0.00 | 0.00 | 44 | 1006.5 |
| 20260505100029 | 24 | 92 | 9.7 | 19.3 | 0.00 | 0.00 | 0.00 | 43 | 1007.3 |
| 20260505095933 | 24 | 60 | 11.3 | 19.3 | 0.00 | 0.00 | 0.00 | 42 | 1007.3 |
| 20260505095836 | 24 | 97 | 12.9 | 19.3 | 0.00 | 0.00 | 0.00 | 43 | 1007.4 |
| 20260505095729 | 24 | 66 | 12.9 | 19.3 | 0.00 | 0.00 | 0.00 | 44 | 1007.4 |
| 20260505095632 | 24 | 64 | 12.9 | 17.7 | 0.00 | 0.00 | 0.00 | 45 | 1007.4 |
| 20260505095515 | 24 | 74 | 11.3 | 17.7 | 0.00 | 0.00 | 0.00 | 44 | 1007.4 |
| 20260505095417 | 24 | 78 | 8.0 | 16.1 | 0.00 | 0.00 | 0.00 | 44 | 1007.4 |
| 20260505095310 | 24 | 74 | 9.7 | 16.1 | 0.00 | 0.00 | 0.00 | 44 | 1007.4 |
| 20260505095212 | 24 | 114 | 9.7 | 16.1 | 0.00 | 0.00 | 0.00 | 44 | 1007.4 |
| 20260505095115 | 24 | 108 | 8.0 | 16.1 | 0.00 | 0.00 | 0.00 | 46 | 1007.4 |
| 20260505094956 | 24 | 85 | 9.7 | 16.1 | 0.00 | 0.00 | 0.00 | 44 | 1007.4 |
| 20260505094833 | 24 | 78 | 9.7 | 14.5 | 0.00 | 0.00 | 0.00 | 43 | 1007.4 |
| 20260505094736 | 24 | 69 | 8.0 | 16.1 | 0.00 | 0.00 | 0.00 | 44 | 1007.4 |
| 20260505094629 | 25 | 64 | 6.4 | 16.1 | 0.00 | 0.00 | 0.00 | 43 | 1007.4 |
| 20260505094449 | 25 | 45 | 8.0 | 16.1 | 0.00 | 0.00 | 0.00 | 44 | 1007.5 |
| 20260505094331 | 25 | 64 | 8.0 | 16.1 | 0.00 | 0.00 | 0.00 | 43 | 1007.5 |
| 20260505094224 | 25 | 64 | 6.4 | 16.1 | 0.00 | 0.00 | 0.00 | 43 | 1007.5 |
| 20260505094110 | 25 | 81 | 8.0 | 16.1 | 0.00 | 0.00 | 0.00 | 44 | 1007.5 |
| 20260505094011 | 25 | 94 | 8.0 | 16.1 | 0.00 | 0.00 | 0.00 | 45 | 1007.6 |
| 20260505093915 | 25 | 85 | 8.0 | 14.5 | 0.00 | 0.00 | 0.00 | 44 | 1007.6 |
| 20260505093747 | 25 | 35 | 6.4 | 14.5 | 0.00 | 0.00 | 0.00 | 44 | 1007.6 |
| 20260505093631 | 25 | 85 | 4.8 | 9.7 | 0.00 | 0.00 | 0.00 | 42 | 1007.6 |
| 20260505093511 | 25 | 328 | 1.6 | 8.0 | 0.00 | 0.00 | 0.00 | 43 | 1007.6 |
| 20260505093407 | 25 | 355 | 1.6 | 8.0 | 0.00 | 0.00 | 0.00 | 43 | 1007.7 |
| 20260505093250 | 25 | 272 | 3.2 | 8.0 | 0.00 | 0.00 | 0.00 | 44 | 1007.7 |
| 20260505093151 | 24 | 324 | 4.8 | 8.0 | 0.00 | 0.00 | 0.00 | 44 | 1007.7 |
| 20260505093053 | 24 | 30 | 3.2 | 8.0 | 0.00 | 0.00 | 0.00 | 44 | 1007.7 |
| 20260505093031 | 24 | 6 | 1.6 | 8.0 | 0.00 | 0.00 | 0.00 | 44 | 1006.8 |
| 20260505092946 | 24 | 45 | 3.2 | 12.9 | 0.00 | 0.00 | 0.00 | 44 | 1007.7 |
| 20260505092849 | 24 | 78 | 1.6 | 12.9 | 0.00 | 0.00 | 0.00 | 44 | 1007.8 |
| 20260505092730 | 24 | 107 | 3.2 | 12.9 | 0.00 | 0.00 | 0.00 | 44 | 1007.8 |
| 20260505092618 | 24 | 107 | 4.8 | 12.9 | 0.00 | 0.00 | 0.00 | 43 | 1007.8 |
| 20260505092554 | 23 | 107 | 3.2 | 12.9 | 0.00 | 0.00 | 0.00 | 43 | 1007.0 |
| 20260505092510 | 24 | 105 | 3.2 | 12.9 | 0.00 | 0.00 | 0.00 | 43 | 1007.8 |
| 20260505092331 | 24 | 51 | 4.8 | 12.9 | 0.00 | 0.00 | 0.00 | 44 | 1007.8 |
| 20260505092224 | 24 | 89 | 8.0 | 12.9 | 0.00 | 0.00 | 0.00 | 44 | 1007.8 |
| 20260505092102 | 24 | 99 | 6.4 | 12.9 | 0.00 | 0.00 | 0.00 | 45 | 1007.8 |
| 20260505091942 | 24 | 31 | 6.4 | 9.7 | 0.00 | 0.00 | 0.00 | 45 | 1007.9 |
| 20260505091849 | 24 | 58 | 4.8 | 9.7 | 0.00 | 0.00 | 0.00 | 46 | 1007.8 |
| 20260505091740 | 24 | 83 | 3.2 | 9.7 | 0.00 | 0.00 | 0.00 | 47 | 1007.8 |
| 20260505091643 | 24 | 73 | 4.8 | 9.7 | 0.00 | 0.00 | 0.00 | 47 | 1007.9 |
| 20260505091544 | 24 | 51 | 4.8 | 11.3 | 0.00 | 0.00 | 0.00 | 47 | 1007.9 |
| 20260505091516 | 23 | 83 | 3.2 | 11.3 | 0.00 | 0.00 | 0.00 | 47 | 1007.0 |
| 20260505091438 | 23 | 65 | 1.6 | 9.7 | 0.00 | 0.00 | 0.00 | 46 | 1007.9 |
| 20260505091339 | 23 | 53 | 1.6 | 9.7 | 0.00 | 0.00 | 0.00 | 46 | 1007.9 |
| 20260505091223 | 23 | 53 | 1.6 | 9.7 | 0.00 | 0.00 | 0.00 | 45 | 1007.9 |
| 20260505091041 | 23 | 80 | 3.2 | 9.7 | 0.00 | 0.00 | 0.00 | 46 | 1007.9 |
| 20260505090944 | 23 | 80 | 3.2 | 9.7 | 0.00 | 0.00 | 0.00 | 46 | 1008.0 |
| 20260505090838 | 23 | 107 | 3.2 | 9.7 | 0.00 | 0.00 | 0.00 | 47 | 1007.9 |
| 20260505090742 | 23 | 105 | 4.8 | 8.0 | 0.00 | 0.00 | 0.00 | 48 | 1008.0 |
| 20260505090623 | 23 | 91 | 4.8 | 8.0 | 0.00 | 0.00 | 0.00 | 49 | 1008.0 |
| 20260505090525 | 23 | 88 | 3.2 | 8.0 | 0.00 | 0.00 | 0.00 | 48 | 1008.0 |
| 20260505090432 | 23 | 303 | 3.2 | 8.0 | 0.00 | 0.00 | 0.00 | 48 | 1008.0 |
| 20260505090259 | 23 | 81 | 3.2 | 8.0 | 0.00 | 0.00 | 0.00 | 47 | 1008.1 |
| 20260505090201 | 23 | 81 | 3.2 | 8.0 | 0.00 | 0.00 | 0.00 | 48 | 1008.1 |
| 20260505090101 | 23 | 80 | 3.2 | 8.0 | 0.00 | 0.00 | 0.00 | 47 | 1008.2 |
| 20260505090037 | 23 | 73 | 3.2 | 9.7 | 0.00 | 0.00 | 0.00 | 47 | 1007.3 |
| 20260505085954 | 23 | 76 | 3.2 | 9.7 | 0.00 | 0.00 | 0.00 | 48 | 1008.2 |
| 20260505085856 | 23 | 76 | 3.2 | 9.7 | 0.00 | 0.00 | 0.00 | 48 | 1008.2 |
| 20260505085740 | 23 | 76 | 4.8 | 9.7 | 0.00 | 0.00 | 0.00 | 48 | 1008.2 |
| 20260505085644 | 23 | 87 | 3.2 | 9.7 | 0.00 | 0.00 | 0.00 | 48 | 1008.2 |
| 20260505085615 | 23 | 72 | 1.6 | 9.7 | 0.00 | 0.00 | 0.00 | 48 | 1007.4 |
| 20260505085533 | 23 | 47 | 3.2 | 9.7 | 0.00 | 0.00 | 0.00 | 48 | 1008.2 |
| 20260505085433 | 23 | 58 | 4.8 | 9.7 | 0.00 | 0.00 | 0.00 | 48 | 1008.2 |
| 20260505085316 | 23 | 84 | 6.4 | 9.7 | 0.00 | 0.00 | 0.00 | 47 | 1008.3 |
| 20260505085217 | 23 | 59 | 4.8 | 9.7 | 0.00 | 0.00 | 0.00 | 48 | 1008.2 |
| 20260505085146 | 23 | 25 | 3.2 | 9.7 | 0.00 | 0.00 | 0.00 | 49 | 1007.3 |
| 20260505085106 | 23 | 312 | 1.6 | 6.4 | 0.00 | 0.00 | 0.00 | 48 | 1008.2 |
| 20260505084931 | 23 | 60 | 3.2 | 8.0 | 0.00 | 0.00 | 0.00 | 48 | 1008.2 |
| 20260505084831 | 23 | 75 | 3.2 | 8.0 | 0.00 | 0.00 | 0.00 | 48 | 1008.2 |
| 20260505084722 | 23 | 53 | 3.2 | 8.0 | 0.00 | 0.00 | 0.00 | 49 | 1008.2 |
| 20260505084623 | 23 | 66 | 3.2 | 8.0 | 0.00 | 0.00 | 0.00 | 50 | 1008.2 |
| 20260505084521 | 23 | 85 | 1.6 | 8.0 | 0.00 | 0.00 | 0.00 | 49 | 1008.2 |
| 20260505084422 | 23 | 16 | 1.6 | 8.0 | 0.00 | 0.00 | 0.00 | 48 | 1008.3 |
| 20260505084326 | 23 | 53 | 1.6 | 8.0 | 0.00 | 0.00 | 0.00 | 49 | 1008.2 |
| 20260505084217 | 23 | 53 | 3.2 | 8.0 | 0.00 | 0.00 | 0.00 | 48 | 1008.3 |
| 20260505084120 | 23 | 42 | 3.2 | 8.0 | 0.00 | 0.00 | 0.00 | 48 | 1008.3 |
| 20260505084018 | 23 | 55 | 3.2 | 6.4 | 0.00 | 0.00 | 0.00 | 49 | 1008.3 |
| 20260505083919 | 23 | 89 | 1.6 | 6.4 | 0.00 | 0.00 | 0.00 | 50 | 1008.3 |
| 20260505083809 | 23 | 122 | 1.6 | 4.8 | 0.00 | 0.00 | 0.00 | 48 | 1008.3 |
| 20260505083713 | 23 | 122 | 3.2 | 4.8 | 0.00 | 0.00 | 0.00 | 50 | 1008.3 |
| 20260505083531 | 23 | 131 | 1.6 | 4.8 | 0.00 | 0.00 | 0.00 | 50 | 1008.3 |
| 20260505083433 | 23 | 131 | 1.6 | 4.8 | 0.00 | 0.00 | 0.00 | 50 | 1008.3 |
| 20260505083324 | 23 | 94 | 1.6 | 4.8 | 0.00 | 0.00 | 0.00 | 50 | 1008.3 |
| 20260505083219 | 22 | 92 | 0.0 | 6.4 | 0.00 | 0.00 | 0.00 | 51 | 1008.4 |
| 20260505083122 | 22 | 92 | 0.0 | 6.4 | 0.00 | 0.00 | 0.00 | 51 | 1008.4 |
| 20260505082711 | 22 | 45 | 3.2 | 6.4 | 0.00 | 0.00 | 0.00 | 50 | 1008.4 |
| 20260505082618 | 22 | 45 | 3.2 | 6.4 | 0.00 | 0.00 | 0.00 | 51 | 1008.4 |
| 20260505082549 | 22 | 50 | 1.6 | 6.4 | 0.00 | 0.00 | 0.00 | 51 | 1007.6 |
| 20260505082504 | 22 | 24 | 3.2 | 6.4 | 0.00 | 0.00 | 0.00 | 51 | 1008.4 |
| 20260505082407 | 22 | 23 | 3.2 | 6.4 | 0.00 | 0.00 | 0.00 | 52 | 1008.4 |
| 20260505082309 | 22 | 75 | 3.2 | 6.4 | 0.00 | 0.00 | 0.00 | 51 | 1008.5 |
| 20260505082211 | 22 | 82 | 3.2 | 6.4 | 0.00 | 0.00 | 0.00 | 52 | 1008.5 |
| 20260505082146 | 22 | 82 | 3.2 | 6.4 | 0.00 | 0.00 | 0.00 | 52 | 1007.6 |
| 20260505082102 | 22 | 62 | 3.2 | 6.4 | 0.00 | 0.00 | 0.00 | 52 | 1008.4 |
| 20260505082009 | 22 | 64 | 1.6 | 4.8 | 0.00 | 0.00 | 0.00 | 52 | 1008.5 |
| 20260505081912 | 22 | 61 | 0.0 | 4.8 | 0.00 | 0.00 | 0.00 | 51 | 1008.5 |
| 20260505081814 | 22 | 61 | 1.6 | 4.8 | 0.00 | 0.00 | 0.00 | 52 | 1008.5 |
| 20260505081708 | 22 | 61 | 3.2 | 4.8 | 0.00 | 0.00 | 0.00 | 52 | 1008.4 |
| 20260505081547 | 22 | 61 | 1.6 | 4.8 | 0.00 | 0.00 | 0.00 | 52 | 1008.5 |
| 20260505081450 | 22 | 48 | 1.6 | 4.8 | 0.00 | 0.00 | 0.00 | 53 | 1008.4 |
| 20260505081332 | 22 | 42 | 0.0 | 4.8 | 0.00 | 0.00 | 0.00 | 56 | 1008.5 |
| 20260505081228 | 22 | 42 | 0.0 | 4.8 | 0.00 | 0.00 | 0.00 | 54 | 1008.5 |
| 20260505081132 | 21 | 42 | 0.0 | 4.8 | 0.00 | 0.00 | 0.00 | 53 | 1008.5 |
| 20260505081009 | 21 | 42 | 0.0 | 4.8 | 0.00 | 0.00 | 0.00 | 54 | 1008.5 |
| 20260505080901 | 21 | 42 | 1.6 | 6.4 | 0.00 | 0.00 | 0.00 | 53 | 1008.5 |
| 20260505080755 | 21 | 42 | 1.6 | 6.4 | 0.00 | 0.00 | 0.00 | 53 | 1008.5 |
| 20260505080655 | 21 | 42 | 1.6 | 6.4 | 0.00 | 0.00 | 0.00 | 54 | 1008.5 |
| 20260505080539 | 21 | 42 | 3.2 | 6.4 | 0.00 | 0.00 | 0.00 | 53 | 1008.5 |
| 20260505080422 | 21 | 42 | 3.2 | 6.4 | 0.00 | 0.00 | 0.00 | 54 | 1008.5 |
| 20260505080315 | 21 | 42 | 3.2 | 6.4 | 0.00 | 0.00 | 0.00 | 54 | 1008.5 |
| 20260505080152 | 21 | 38 | 3.2 | 6.4 | 0.00 | 0.00 | 0.00 | 54 | 1008.5 |
| 20260505080053 | 21 | 60 | 3.2 | 6.4 | 0.00 | 0.00 | 0.00 | 55 | 1008.5 |
| 20260505075956 | 21 | 72 | 3.2 | 6.4 | 0.00 | 0.00 | 0.00 | 55 | 1008.5 |
| 20260505075835 | 21 | 51 | 1.6 | 6.4 | 0.00 | 0.00 | 0.00 | 57 | 1008.5 |
| 20260505075737 | 21 | 330 | 1.6 | 6.4 | 0.00 | 0.00 | 0.00 | 57 | 1008.6 |
| 20260505075642 | 20 | 313 | 3.2 | 6.4 | 0.00 | 0.00 | 0.00 | 56 | 1008.5 |
| 20260505075613 | 20 | 313 | 1.6 | 6.4 | 0.00 | 0.00 | 0.00 | 56 | 1007.7 |
| 20260505075532 | 20 | 312 | 4.8 | 6.4 | 0.00 | 0.00 | 0.00 | 55 | 1008.5 |
| 20260505075414 | 20 | 312 | 4.8 | 6.4 | 0.00 | 0.00 | 0.00 | 55 | 1008.5 |
| 20260505075316 | 20 | 313 | 3.2 | 6.4 | 0.00 | 0.00 | 0.00 | 58 | 1008.5 |
| 20260505075209 | 20 | 313 | 1.6 | 3.2 | 0.00 | 0.00 | 0.00 | 58 | 1008.5 |
| 20260505075053 | 20 | 313 | 0.0 | 3.2 | 0.00 | 0.00 | 0.00 | 59 | 1008.6 |
| 20260505074956 | 20 | 313 | 1.6 | 3.2 | 0.00 | 0.00 | 0.00 | 58 | 1008.6 |
| 20260505074859 | 20 | 313 | 1.6 | 3.2 | 0.00 | 0.00 | 0.00 | 58 | 1008.6 |
| 20260505074751 | 20 | 313 | 1.6 | 4.8 | 0.00 | 0.00 | 0.00 | 59 | 1008.6 |
| 20260505074653 | 20 | 313 | 0.0 | 4.8 | 0.00 | 0.00 | 0.00 | 58 | 1008.6 |
| 20260505074535 | 20 | 313 | 0.0 | 4.8 | 0.00 | 0.00 | 0.00 | 58 | 1008.6 |
| 20260505074510 | 19 | 313 | 0.0 | 4.8 | 0.00 | 0.00 | 0.00 | 58 | 1007.8 |
| 20260505074432 | 20 | 313 | 0.0 | 4.8 | 0.00 | 0.00 | 0.00 | 58 | 1008.6 |
| 20260505074335 | 20 | 313 | 1.6 | 4.8 | 0.00 | 0.00 | 0.00 | 58 | 1008.6 |
| 20260505074236 | 19 | 313 | 1.6 | 4.8 | 0.00 | 0.00 | 0.00 | 58 | 1008.6 |
| 20260505074116 | 19 | 313 | 1.6 | 4.8 | 0.00 | 0.00 | 0.00 | 58 | 1008.6 |
| 20260505074051 | 19 | 313 | 1.6 | 4.8 | 0.00 | 0.00 | 0.00 | 58 | 1007.9 |
| 20260505074006 | 19 | 313 | 3.2 | 4.8 | 0.00 | 0.00 | 0.00 | 59 | 1008.6 |
| 20260505073906 | 19 | 313 | 1.6 | 6.4 | 0.00 | 0.00 | 0.00 | 59 | 1008.6 |
| 20260505073636 | 19 | 321 | 0.0 | 6.4 | 0.00 | 0.00 | 0.00 | 59 | 1008.7 |
| 20260505073537 | 19 | 321 | 0.0 | 6.4 | 0.00 | 0.00 | 0.00 | 59 | 1008.7 |
| 20260505073440 | 19 | 321 | 1.6 | 6.4 | 0.00 | 0.00 | 0.00 | 59 | 1008.7 |
| 20260505073343 | 19 | 321 | 3.2 | 6.4 | 0.00 | 0.00 | 0.00 | 59 | 1008.7 |
| 20260505073236 | 18 | 321 | 3.2 | 6.4 | 0.00 | 0.00 | 0.00 | 58 | 1008.8 |
| 20260505073139 | 18 | 321 | 3.2 | 6.4 | 0.00 | 0.00 | 0.00 | 59 | 1008.7 |
| 20260505073043 | 18 | 321 | 3.2 | 6.4 | 0.00 | 0.00 | 0.00 | 59 | 1008.8 |
| 20260505072947 | 18 | 315 | 3.2 | 6.4 | 0.00 | 0.00 | 0.00 | 59 | 1008.8 |
| 20260505072830 | 18 | 333 | 3.2 | 6.4 | 0.00 | 0.00 | 0.00 | 60 | 1008.8 |
| 20260505072721 | 18 | 333 | 4.8 | 6.4 | 0.00 | 0.00 | 0.00 | 60 | 1008.8 |
| 20260505072600 | 18 | 282 | 4.8 | 6.4 | 0.00 | 0.00 | 0.00 | 60 | 1008.9 |
| 20260505072504 | 18 | 314 | 3.2 | 6.4 | 0.00 | 0.00 | 0.00 | 60 | 1008.9 |
| 20260505072359 | 18 | 322 | 1.6 | 6.4 | 0.00 | 0.00 | 0.00 | 60 | 1008.9 |
| 20260505072306 | 18 | 322 | 1.6 | 6.4 | 0.00 | 0.00 | 0.00 | 60 | 1008.9 |
| 20260505072207 | 18 | 322 | 3.2 | 6.4 | 0.00 | 0.00 | 0.00 | 59 | 1008.9 |
| 20260505072011 | 18 | 322 | 1.6 | 6.4 | 0.00 | 0.00 | 0.00 | 60 | 1008.1 |
| 20260505071930 | 18 | 322 | 3.2 | 6.4 | 0.00 | 0.00 | 0.00 | 59 | 1008.9 |
| 20260505071833 | 18 | 322 | 4.8 | 6.4 | 0.00 | 0.00 | 0.00 | 60 | 1008.9 |
| 20260505071735 | 18 | 316 | 3.2 | 6.4 | 0.00 | 0.00 | 0.00 | 61 | 1008.9 |
| 20260505071617 | 18 | 309 | 3.2 | 6.4 | 0.00 | 0.00 | 0.00 | 60 | 1008.9 |
| 20260505071551 | 18 | 293 | 3.2 | 6.4 | 0.00 | 0.00 | 0.00 | 60 | 1008.2 |
| 20260505071513 | 18 | 293 | 4.8 | 6.4 | 0.00 | 0.00 | 0.00 | 60 | 1008.9 |
| 20260505071416 | 18 | 279 | 4.8 | 6.4 | 0.00 | 0.00 | 0.00 | 60 | 1008.9 |
| 20260505071319 | 18 | 277 | 3.2 | 6.4 | 0.00 | 0.00 | 0.00 | 60 | 1008.9 |
| 20260505071221 | 18 | 288 | 4.8 | 6.4 | 0.00 | 0.00 | 0.00 | 59 | 1008.9 |
| 20260505071127 | 18 | 274 | 3.2 | 6.4 | 0.00 | 0.00 | 0.00 | 59 | 1008.2 |
| 20260505071052 | 18 | 274 | 3.2 | 6.4 | 0.00 | 0.00 | 0.00 | 59 | 1008.9 |
| 20260505070955 | 18 | 278 | 1.6 | 6.4 | 0.00 | 0.00 | 0.00 | 60 | 1008.9 |
| 20260505070902 | 18 | 309 | 1.6 | 6.4 | 0.00 | 0.00 | 0.00 | 60 | 1008.9 |
| 20260505070742 | 18 | 309 | 3.2 | 6.4 | 0.00 | 0.00 | 0.00 | 60 | 1009.0 |
| 20260505070647 | 18 | 309 | 3.2 | 6.4 | 0.00 | 0.00 | 0.00 | 60 | 1009.0 |
| 20260505070624 | 17 | 309 | 1.6 | 6.4 | 0.00 | 0.00 | 0.00 | 60 | 1008.2 |
| 20260505070537 | 18 | 307 | 1.6 | 6.4 | 0.00 | 0.00 | 0.00 | 61 | 1009.0 |
| 20260505070438 | 18 | 307 | 1.6 | 6.4 | 0.00 | 0.00 | 0.00 | 60 | 1009.0 |
| 20260505070339 | 18 | 307 | 0.0 | 6.4 | 0.00 | 0.00 | 0.00 | 61 | 1009.0 |
| 20260505070232 | 17 | 307 | 1.6 | 6.4 | 0.00 | 0.00 | 0.00 | 61 | 1009.0 |
| 20260505070139 | 17 | 307 | 1.6 | 6.4 | 0.00 | 0.00 | 0.00 | 61 | 1009.0 |
| 20260505070041 | 17 | 307 | 1.6 | 6.4 | 0.00 | 0.00 | 0.00 | 62 | 1009.0 |
| 20260505065943 | 17 | 323 | 0.0 | 4.8 | 0.00 | 0.00 | 0.00 | 61 | 1009.0 |
| 20260505065838 | 17 | 323 | 1.6 | 4.8 | 0.00 | 0.00 | 0.00 | 61 | 1009.0 |
| 20260505065737 | 17 | 323 | 1.6 | 4.8 | 0.00 | 0.00 | 0.00 | 61 | 1009.0 |
| 20260505065616 | 17 | 266 | 0.0 | 0.0 | 0.00 | 0.00 | 0.00 | 62 | 1009.0 |
| 20260505065516 | 17 | 266 | 0.0 | 0.0 | 0.00 | 0.00 | 0.00 | 62 | 1008.2 |
| 20260505065433 | 17 | 266 | 0.0 | 0.0 | 0.00 | 0.00 | 0.00 | 64 | 1009.0 |
| 20260505065336 | 17 | 266 | 0.0 | 0.0 | 0.00 | 0.00 | 0.00 | 64 | 1009.0 |
| 20260505065238 | 17 | 266 | 0.0 | 0.0 | 0.00 | 0.00 | 0.00 | 63 | 1009.0 |
| 20260505065120 | 17 | 266 | 0.0 | 0.0 | 0.00 | 0.00 | 0.00 | 62 | 1009.0 |
| 20260505065057 | 17 | 266 | 0.0 | 0.0 | 0.00 | 0.00 | 0.00 | 62 | 1008.3 |
| 20260505065011 | 17 | 266 | 0.0 | 0.0 | 0.00 | 0.00 | 0.00 | 64 | 1009.1 |
| 20260505064854 | 17 | 266 | 0.0 | 0.0 | 0.00 | 0.00 | 0.00 | 64 | 1009.0 |
| 20260505064759 | 17 | 266 | 0.0 | 0.0 | 0.00 | 0.00 | 0.00 | 64 | 1009.0 |
| 20260505064704 | 17 | 266 | 0.0 | 0.0 | 0.00 | 0.00 | 0.00 | 64 | 1009.0 |
| 20260505064639 | 16 | 266 | 0.0 | 0.0 | 0.00 | 0.00 | 0.00 | 64 | 1008.4 |
| 20260505064554 | 16 | 266 | 0.0 | 0.0 | 0.00 | 0.00 | 0.00 | 64 | 1009.1 |
| 20260505064456 | 16 | 266 | 0.0 | 0.0 | 0.00 | 0.00 | 0.00 | 65 | 1009.1 |
| 20260505064359 | 16 | 266 | 0.0 | 0.0 | 0.00 | 0.00 | 0.00 | 65 | 1009.1 |
| 20260505064253 | 16 | 266 | 0.0 | 0.0 | 0.00 | 0.00 | 0.00 | 65 | 1009.1 |
| 20260505064154 | 16 | 266 | 0.0 | 0.0 | 0.00 | 0.00 | 0.00 | 65 | 1009.1 |
| 20260505064038 | 16 | 266 | 0.0 | 0.0 | 0.00 | 0.00 | 0.00 | 66 | 1009.1 |
| 20260505063919 | 16 | 266 | 0.0 | 0.0 | 0.00 | 0.00 | 0.00 | 66 | 1009.1 |
| 20260505063821 | 16 | 266 | 0.0 | 0.0 | 0.00 | 0.00 | 0.00 | 67 | 1009.1 |
| 20260505063716 | 16 | 265 | 0.0 | 0.0 | 0.00 | 0.00 | 0.00 | 67 | 1009.1 |
| 20260505063619 | 16 | 265 | 0.0 | 0.0 | 0.00 | 0.00 | 0.00 | 67 | 1009.1 |
| 20260505063519 | 16 | 265 | 0.0 | 0.0 | 0.00 | 0.00 | 0.00 | 67 | 1009.1 |
| 20260505063426 | 16 | 265 | 0.0 | 0.0 | 0.00 | 0.00 | 0.00 | 68 | 1009.1 |
| 20260505063300 | 15 | 266 | 0.0 | 0.0 | 0.00 | 0.00 | 0.00 | 69 | 1009.1 |
| 20260505063139 | 15 | 265 | 0.0 | 0.0 | 0.00 | 0.00 | 0.00 | 70 | 1009.1 |
| 20260505063039 | 15 | 265 | 0.0 | 0.0 | 0.00 | 0.00 | 0.00 | 70 | 1009.1 |
| 20260505062920 | 15 | 265 | 0.0 | 0.0 | 0.00 | 0.00 | 0.00 | 71 | 1009.1 |
| 20260505062733 | 15 | 265 | 0.0 | 0.0 | 0.00 | 0.00 | 0.00 | 71 | 1009.1 |
| 20260505062639 | 15 | 265 | 0.0 | 0.0 | 0.00 | 0.00 | 0.00 | 71 | 1009.0 |
| 20260505062541 | 15 | 265 | 0.0 | 0.0 | 0.00 | 0.00 | 0.00 | 71 | 1009.1 |
| 20260505062519 | 14 | 265 | 0.0 | 0.0 | 0.00 | 0.00 | 0.00 | 71 | 1008.4 |
| 20260505062433 | 14 | 265 | 0.0 | 0.0 | 0.00 | 0.00 | 0.00 | 71 | 1009.1 |
| 20260505062314 | 14 | 281 | 0.0 | 0.0 | 0.00 | 0.00 | 0.00 | 72 | 1009.1 |
| 20260505062155 | 14 | 281 | 0.0 | 0.0 | 0.00 | 0.00 | 0.00 | 73 | 1009.1 |
| 20260505062056 | 13 | 281 | 0.0 | 0.0 | 0.00 | 0.00 | 0.00 | 73 | 1008.4 |
| 20260505062024 | 14 | 281 | 0.0 | 0.0 | 0.00 | 0.00 | 0.00 | 73 | 1009.1 |
| 20260505061927 | 14 | 281 | 0.0 | 0.0 | 0.00 | 0.00 | 0.00 | 72 | 1009.1 |
| 20260505061813 | 14 | 281 | 0.0 | 0.0 | 0.00 | 0.00 | 0.00 | 72 | 1009.1 |
| 20260505061715 | 14 | 296 | 0.0 | 0.0 | 0.00 | 0.00 | 0.00 | 72 | 1009.1 |
| 20260505061619 | 14 | 296 | 0.0 | 0.0 | 0.00 | 0.00 | 0.00 | 73 | 1009.2 |
| 20260505061555 | 13 | 296 | 0.0 | 0.0 | 0.00 | 0.00 | 0.00 | 73 | 1008.4 |
| 20260505061510 | 13 | 301 | 0.0 | 0.0 | 0.00 | 0.00 | 0.00 | 73 | 1009.1 |
| 20260505061414 | 13 | 301 | 0.0 | 0.0 | 0.00 | 0.00 | 0.00 | 73 | 1009.1 |
| 20260505061317 | 13 | 301 | 0.0 | 0.0 | 0.00 | 0.00 | 0.00 | 74 | 1009.1 |
| 20260505061220 | 13 | 301 | 0.0 | 0.0 | 0.00 | 0.00 | 0.00 | 73 | 1009.2 |
| 20260505061155 | 13 | 301 | 0.0 | 0.0 | 0.00 | 0.00 | 0.00 | 73 | 1008.5 |
| 20260505061112 | 13 | 301 | 0.0 | 0.0 | 0.00 | 0.00 | 0.00 | 73 | 1009.2 |
| 20260505061014 | 13 | 301 | 0.0 | 0.0 | 0.00 | 0.00 | 0.00 | 73 | 1009.2 |
| 20260505060918 | 13 | 301 | 0.0 | 0.0 | 0.00 | 0.00 | 0.00 | 74 | 1009.2 |
| 20260505060749 | 13 | 301 | 0.0 | 0.0 | 0.00 | 0.00 | 0.00 | 74 | 1009.2 |
| 20260505060652 | 13 | 301 | 0.0 | 0.0 | 0.00 | 0.00 | 0.00 | 74 | 1009.2 |
| 20260505060553 | 13 | 301 | 0.0 | 0.0 | 0.00 | 0.00 | 0.00 | 75 | 1009.2 |
| 20260505060458 | 13 | 301 | 0.0 | 0.0 | 0.00 | 0.00 | 0.00 | 75 | 1009.2 |
| 20260505060332 | 13 | 301 | 0.0 | 0.0 | 0.00 | 0.00 | 0.00 | 75 | 1009.2 |
| 20260505060234 | 13 | 301 | 0.0 | 0.0 | 0.00 | 0.00 | 0.00 | 75 | 1009.2 |
| 20260505060113 | 13 | 301 | 0.0 | 0.0 | 0.00 | 0.00 | 0.00 | 76 | 1009.3 |
| 20260505060042 | 13 | 301 | 0.0 | 0.0 | 0.00 | 0.00 | 0.00 | 76 | 1008.5 |
| 20260505060004 | 13 | 301 | 0.0 | 0.0 | 0.00 | 0.00 | 0.00 | 76 | 1009.2 |
| 20260505055906 | 13 | 301 | 0.0 | 0.0 | 0.00 | 0.00 | 0.00 | 77 | 1009.2 |
| 20260505055814 | 13 | 301 | 0.0 | 0.0 | 0.00 | 0.00 | 0.00 | 77 | 1009.1 |
| 20260505055655 | 13 | 301 | 0.0 | 0.0 | 0.00 | 0.00 | 0.00 | 76 | 1009.2 |
| 20260505055629 | 12 | 301 | 0.0 | 0.0 | 0.00 | 0.00 | 0.00 | 76 | 1008.5 |
| 20260505055547 | 13 | 301 | 0.0 | 0.0 | 0.00 | 0.00 | 0.00 | 76 | 1009.1 |
| 20260505055450 | 13 | 301 | 0.0 | 0.0 | 0.00 | 0.00 | 0.00 | 76 | 1009.1 |
| 20260505055353 | 13 | 301 | 0.0 | 0.0 | 0.00 | 0.00 | 0.00 | 76 | 1009.1 |
| 20260505055257 | 12 | 301 | 0.0 | 0.0 | 0.00 | 0.00 | 0.00 | 77 | 1009.1 |
| 20260505055134 | 12 | 184 | 0.0 | 0.0 | 0.00 | 0.00 | 0.00 | 78 | 1009.1 |
| 20260505055035 | 12 | 89 | 0.0 | 0.0 | 0.00 | 0.00 | 0.00 | 78 | 1009.2 |
| 20260505055003 | 12 | 89 | 0.0 | 0.0 | 0.00 | 0.00 | 0.00 | 79 | 1008.5 |
| 20260505054908 | 12 | 89 | 0.0 | 0.0 | 0.00 | 0.00 | 0.00 | 79 | 1009.2 |
| 20260505054808 | 12 | 89 | 0.0 | 0.0 | 0.00 | 0.00 | 0.00 | 80 | 1009.2 |
| 20260505054710 | 12 | 89 | 0.0 | 0.0 | 0.00 | 0.00 | 0.00 | 80 | 1009.2 |
| 20260505054613 | 12 | 89 | 0.0 | 0.0 | 0.00 | 0.00 | 0.00 | 81 | 1009.1 |
| 20260505054548 | 11 | 89 | 0.0 | 0.0 | 0.00 | 0.00 | 0.00 | 82 | 1008.5 |
| 20260505054509 | 12 | 89 | 0.0 | 0.0 | 0.00 | 0.00 | 0.00 | 82 | 1009.2 |
| 20260505054412 | 12 | 89 | 0.0 | 0.0 | 0.00 | 0.00 | 0.00 | 82 | 1009.2 |
| 20260505054315 | 11 | 89 | 0.0 | 0.0 | 0.00 | 0.00 | 0.00 | 82 | 1009.1 |
| 20260505054153 | 11 | 89 | 0.0 | 0.0 | 0.00 | 0.00 | 0.00 | 83 | 1009.2 |
| 20260505054119 | 11 | 89 | 0.0 | 0.0 | 0.00 | 0.00 | 0.00 | 83 | 1008.5 |
| 20260505054044 | 11 | 89 | 0.0 | 0.0 | 0.00 | 0.00 | 0.00 | 84 | 1009.2 |
| 20260505053945 | 11 | 89 | 0.0 | 0.0 | 0.00 | 0.00 | 0.00 | 85 | 1009.2 |
| 20260505053846 | 11 | 89 | 0.0 | 0.0 | 0.00 | 0.00 | 0.00 | 86 | 1009.2 |
| 20260505053710 | 10 | 89 | 0.0 | 0.0 | 0.00 | 0.00 | 0.00 | 87 | 1009.2 |
| 20260505053615 | 10 | 89 | 0.0 | 0.0 | 0.00 | 0.00 | 0.00 | 87 | 1009.2 |
| 20260505053550 | 10 | 89 | 0.0 | 0.0 | 0.00 | 0.00 | 0.00 | 87 | 1008.5 |
| 20260505053507 | 10 | 89 | 0.0 | 0.0 | 0.00 | 0.00 | 0.00 | 87 | 1009.2 |
| 20260505053411 | 10 | 89 | 0.0 | 0.0 | 0.00 | 0.00 | 0.00 | 88 | 1009.2 |
| 20260505053251 | 10 | 89 | 0.0 | 0.0 | 0.00 | 0.00 | 0.00 | 88 | 1009.2 |
| 20260505053145 | 9 | 89 | 0.0 | 0.0 | 0.00 | 0.00 | 0.00 | 88 | 1009.2 |
| 20260505053050 | 9 | 89 | 0.0 | 0.0 | 0.00 | 0.00 | 0.00 | 88 | 1009.2 |
| 20260505052953 | 9 | 89 | 0.0 | 0.0 | 0.00 | 0.00 | 0.00 | 88 | 1009.2 |
| 20260505052856 | 9 | 89 | 0.0 | 0.0 | 0.00 | 0.00 | 0.00 | 88 | 1009.2 |
| 20260505052750 | 9 | 89 | 0.0 | 0.0 | 0.00 | 0.00 | 0.00 | 87 | 1009.2 |
| 20260505052653 | 9 | 89 | 0.0 | 0.0 | 0.00 | 0.00 | 0.00 | 87 | 1009.2 |
| 20260505052554 | 8 | 89 | 0.0 | 0.0 | 0.00 | 0.00 | 0.00 | 87 | 1009.2 |
| 20260505052436 | 8 | 89 | 0.0 | 0.0 | 0.00 | 0.00 | 0.00 | 87 | 1009.2 |
| 20260505052324 | 8 | 89 | 0.0 | 0.0 | 0.00 | 0.00 | 0.00 | 87 | 1009.2 |
| 20260505052156 | 8 | 89 | 0.0 | 0.0 | 0.00 | 0.00 | 0.00 | 87 | 1009.2 |
| 20260505052057 | 8 | 89 | 0.0 | 0.0 | 0.00 | 0.00 | 0.00 | 87 | 1009.2 |
| 20260505051959 | 8 | 89 | 0.0 | 0.0 | 0.00 | 0.00 | 0.00 | 87 | 1009.2 |
| 20260505051841 | 8 | 89 | 0.0 | 0.0 | 0.00 | 0.00 | 0.00 | 87 | 1009.3 |
| 20260505051713 | 8 | 89 | 0.0 | 0.0 | 0.00 | 0.00 | 0.00 | 87 | 1009.3 |
| 20260505051557 | 8 | 89 | 0.0 | 0.0 | 0.00 | 0.00 | 0.00 | 87 | 1009.3 |
| 20260505051438 | 8 | 89 | 0.0 | 0.0 | 0.00 | 0.00 | 0.00 | 87 | 1009.3 |
| 20260505051321 | 8 | 89 | 0.0 | 0.0 | 0.00 | 0.00 | 0.00 | 87 | 1009.3 |
| 20260505051213 | 8 | 89 | 0.0 | 0.0 | 0.00 | 0.00 | 0.00 | 87 | 1009.2 |
| 20260505051052 | 8 | 89 | 0.0 | 0.0 | 0.00 | 0.00 | 0.00 | 87 | 1009.3 |
| 20260505050956 | 8 | 89 | 0.0 | 0.0 | 0.00 | 0.00 | 0.00 | 87 | 1009.3 |
| 20260505050900 | 8 | 89 | 0.0 | 0.0 | 0.00 | 0.00 | 0.00 | 87 | 1009.3 |
| 20260505050759 | 8 | 89 | 0.0 | 0.0 | 0.00 | 0.00 | 0.00 | 87 | 1009.3 |
| 20260505050701 | 8 | 89 | 0.0 | 0.0 | 0.00 | 0.00 | 0.00 | 87 | 1009.3 |
| 20260505050601 | 8 | 89 | 0.0 | 0.0 | 0.00 | 0.00 | 0.00 | 87 | 1009.3 |
| 20260505050501 | 8 | 89 | 0.0 | 0.0 | 0.00 | 0.00 | 0.00 | 87 | 1009.2 |
| 20260505050354 | 8 | 89 | 0.0 | 0.0 | 0.00 | 0.00 | 0.00 | 87 | 1009.3 |
| 20260505050235 | 8 | 89 | 0.0 | 0.0 | 0.00 | 0.00 | 0.00 | 87 | 1009.3 |
| 20260505050143 | 8 | 89 | 0.0 | 0.0 | 0.00 | 0.00 | 0.00 | 87 | 1009.2 |
| 20260505041717 | 8 | 89 | 0.0 | 0.0 | 0.00 | 0.00 | 0.00 | 86 | 1008.9 |
| 20260505041619 | 8 | 89 | 0.0 | 0.0 | 0.00 | 0.00 | 0.00 | 86 | 1009.0 |
| 20260505041520 | 8 | 89 | 0.0 | 0.0 | 0.00 | 0.00 | 0.00 | 86 | 1009.0 |
| 20260505041423 | 8 | 89 | 0.0 | 0.0 | 0.00 | 0.00 | 0.00 | 86 | 1008.9 |
| 20260505041317 | 8 | 89 | 0.0 | 0.0 | 0.00 | 0.00 | 0.00 | 86 | 1008.9 |
| 20260505041156 | 8 | 89 | 0.0 | 0.0 | 0.00 | 0.00 | 0.00 | 86 | 1008.9 |
| 20260505041102 | 8 | 89 | 0.0 | 0.0 | 0.00 | 0.00 | 0.00 | 86 | 1008.9 |
| 20260505041005 | 8 | 89 | 0.0 | 0.0 | 0.00 | 0.00 | 0.00 | 85 | 1008.9 |
| 20260505040858 | 8 | 89 | 0.0 | 0.0 | 0.00 | 0.00 | 0.00 | 85 | 1008.8 |
| 20260505040801 | 8 | 89 | 0.0 | 0.0 | 0.00 | 0.00 | 0.00 | 85 | 1008.8 |
| 20260505040703 | 8 | 89 | 0.0 | 0.0 | 0.00 | 0.00 | 0.00 | 85 | 1008.8 |
| 20260505040625 | 8 | 89 | 0.0 | 0.0 | 0.00 | 0.00 | 0.00 | 85 | 1008.1 |
| 20260505040534 | 8 | 89 | 0.0 | 0.0 | 0.00 | 0.00 | 0.00 | 85 | 1008.8 |
| 20260505040442 | 8 | 89 | 0.0 | 0.0 | 0.00 | 0.00 | 0.00 | 85 | 1008.8 |
| 20260505040345 | 8 | 89 | 0.0 | 0.0 | 0.00 | 0.00 | 0.00 | 85 | 1008.8 |
| 20260505040248 | 8 | 89 | 0.0 | 0.0 | 0.00 | 0.00 | 0.00 | 85 | 1008.8 |
| 20260505040142 | 8 | 89 | 0.0 | 0.0 | 0.00 | 0.00 | 0.00 | 85 | 1008.8 |
| 20260505040042 | 8 | 89 | 0.0 | 0.0 | 0.00 | 0.00 | 0.00 | 85 | 1008.8 |
| 20260505035945 | 8 | 89 | 0.0 | 0.0 | 0.00 | 0.00 | 0.00 | 85 | 1008.7 |
| 20260505035850 | 8 | 89 | 0.0 | 0.0 | 0.00 | 0.00 | 0.00 | 85 | 1008.8 |
| 20260505035554 | 8 | 89 | 0.0 | 0.0 | 0.00 | 0.00 | 0.00 | 85 | 1008.8 |
| 20260505035457 | 8 | 89 | 0.0 | 0.0 | 0.00 | 0.00 | 0.00 | 85 | 1008.8 |
| 20260505035329 | 8 | 89 | 0.0 | 0.0 | 0.00 | 0.00 | 0.00 | 84 | 1008.8 |
| 20260505035209 | 8 | 89 | 0.0 | 0.0 | 0.00 | 0.00 | 0.00 | 84 | 1008.8 |
| 20260505035113 | 8 | 89 | 0.0 | 0.0 | 0.00 | 0.00 | 0.00 | 84 | 1008.8 |
| 20260505035014 | 8 | 89 | 0.0 | 0.0 | 0.00 | 0.00 | 0.00 | 84 | 1008.8 |
| 20260505034913 | 8 | 89 | 0.0 | 0.0 | 0.00 | 0.00 | 0.00 | 84 | 1008.8 |
| 20260505034815 | 8 | 89 | 0.0 | 0.0 | 0.00 | 0.00 | 0.00 | 84 | 1008.8 |
| 20260505034656 | 8 | 89 | 0.0 | 0.0 | 0.00 | 0.00 | 0.00 | 84 | 1008.8 |
| 20260505034557 | 8 | 89 | 0.0 | 0.0 | 0.00 | 0.00 | 0.00 | 84 | 1008.8 |
| 20260505034533 | 8 | 89 | 0.0 | 0.0 | 0.00 | 0.00 | 0.00 | 84 | 1008.1 |
| 20260505034451 | 8 | 89 | 0.0 | 0.0 | 0.00 | 0.00 | 0.00 | 84 | 1008.8 |
| 20260505034355 | 8 | 89 | 0.0 | 0.0 | 0.00 | 0.00 | 0.00 | 84 | 1008.8 |
| 20260505034218 | 8 | 89 | 0.0 | 0.0 | 0.00 | 0.00 | 0.00 | 84 | 1008.8 |
| 20260505034118 | 8 | 89 | 0.0 | 0.0 | 0.00 | 0.00 | 0.00 | 84 | 1008.8 |
| 20260505034031 | 8 | 89 | 0.0 | 0.0 | 0.00 | 0.00 | 0.00 | 84 | 1008.1 |
| 20260505033949 | 8 | 89 | 0.0 | 0.0 | 0.00 | 0.00 | 0.00 | 84 | 1008.8 |
| 20260505033832 | 8 | 89 | 0.0 | 0.0 | 0.00 | 0.00 | 0.00 | 84 | 1008.8 |
| 20260505033726 | 8 | 89 | 0.0 | 0.0 | 0.00 | 0.00 | 0.00 | 84 | 1008.8 |
| 20260505033627 | 8 | 89 | 0.0 | 0.0 | 0.00 | 0.00 | 0.00 | 84 | 1008.9 |
| 20260505033511 | 8 | 89 | 0.0 | 0.0 | 0.00 | 0.00 | 0.00 | 84 | 1008.8 |
| 20260505033350 | 8 | 89 | 0.0 | 0.0 | 0.00 | 0.00 | 0.00 | 84 | 1008.8 |
| 20260505033254 | 8 | 89 | 0.0 | 0.0 | 0.00 | 0.00 | 0.00 | 84 | 1008.8 |
| 20260505033148 | 8 | 89 | 0.0 | 0.0 | 0.00 | 0.00 | 0.00 | 84 | 1008.9 |
| 20260505033049 | 8 | 89 | 0.0 | 0.0 | 0.00 | 0.00 | 0.00 | 83 | 1008.8 |
| 20260505032953 | 8 | 89 | 0.0 | 0.0 | 0.00 | 0.00 | 0.00 | 84 | 1008.9 |
| 20260505032847 | 8 | 89 | 0.0 | 0.0 | 0.00 | 0.00 | 0.00 | 84 | 1008.8 |
| 20260505032754 | 8 | 89 | 0.0 | 0.0 | 0.00 | 0.00 | 0.00 | 84 | 1008.9 |
| 20260505032657 | 9 | 89 | 0.0 | 0.0 | 0.00 | 0.00 | 0.00 | 84 | 1008.9 |
| 20260505032558 | 9 | 89 | 0.0 | 0.0 | 0.00 | 0.00 | 0.00 | 84 | 1008.9 |
| 20260505032501 | 9 | 89 | 0.0 | 0.0 | 0.00 | 0.00 | 0.00 | 84 | 1008.9 |
| 20260505032354 | 9 | 89 | 0.0 | 0.0 | 0.00 | 0.00 | 0.00 | 83 | 1008.9 |
| 20260505032128 | 9 | 89 | 0.0 | 0.0 | 0.00 | 0.00 | 0.00 | 83 | 1008.9 |
| 20260505032037 | 8 | 89 | 0.0 | 0.0 | 0.00 | 0.00 | 0.00 | 83 | 1008.2 |
| 20260505032003 | 9 | 89 | 0.0 | 0.0 | 0.00 | 0.00 | 0.00 | 83 | 1008.9 |
| 20260505031906 | 9 | 89 | 0.0 | 0.0 | 0.00 | 0.00 | 0.00 | 82 | 1008.9 |
| 20260505031748 | 9 | 89 | 0.0 | 0.0 | 0.00 | 0.00 | 0.00 | 82 | 1008.9 |
| 20260505031652 | 9 | 89 | 0.0 | 0.0 | 0.00 | 0.00 | 0.00 | 82 | 1008.9 |
| 20260505031621 | 8 | 89 | 0.0 | 0.0 | 0.00 | 0.00 | 0.00 | 82 | 1008.2 |
| 20260505031544 | 9 | 89 | 0.0 | 0.0 | 0.00 | 0.00 | 0.00 | 82 | 1008.9 |
| 20260505031448 | 9 | 89 | 0.0 | 0.0 | 0.00 | 0.00 | 0.00 | 82 | 1009.0 |
| 20260505031354 | 9 | 89 | 0.0 | 0.0 | 0.00 | 0.00 | 0.00 | 82 | 1009.0 |
| 20260505031256 | 9 | 89 | 0.0 | 0.0 | 0.00 | 0.00 | 0.00 | 82 | 1009.0 |
| 20260505031150 | 9 | 89 | 0.0 | 0.0 | 0.00 | 0.00 | 0.00 | 82 | 1009.0 |
| 20260505031050 | 9 | 89 | 0.0 | 0.0 | 0.00 | 0.00 | 0.00 | 82 | 1008.9 |
| 20260505030934 | 9 | 89 | 0.0 | 0.0 | 0.00 | 0.00 | 0.00 | 82 | 1008.9 |
| 20260505030806 | 9 | 89 | 0.0 | 0.0 | 0.00 | 0.00 | 0.00 | 82 | 1008.9 |
| 20260505030714 | 9 | 89 | 0.0 | 0.0 | 0.00 | 0.00 | 0.00 | 82 | 1009.0 |
| 20260505030445 | 9 | 89 | 0.0 | 0.0 | 0.00 | 0.00 | 0.00 | 82 | 1009.0 |
| 20260505030340 | 9 | 89 | 0.0 | 0.0 | 0.00 | 0.00 | 0.00 | 82 | 1009.0 |
| 20260505030220 | 9 | 89 | 0.0 | 0.0 | 0.00 | 0.00 | 0.00 | 82 | 1009.0 |
| 20260505030059 | 9 | 89 | 0.0 | 0.0 | 0.00 | 0.00 | 0.00 | 82 | 1008.9 |
| 20260505030004 | 9 | 89 | 0.0 | 0.0 | 0.00 | 0.00 | 0.00 | 82 | 1008.9 |
| 20260505025839 | 9 | 89 | 0.0 | 0.0 | 0.00 | 0.00 | 0.00 | 82 | 1009.0 |
| 20260505025743 | 10 | 89 | 0.0 | 0.0 | 0.00 | 0.00 | 0.00 | 82 | 1008.9 |
| 20260505025645 | 10 | 89 | 0.0 | 0.0 | 0.00 | 0.00 | 0.00 | 82 | 1009.0 |
| 20260505025525 | 10 | 89 | 0.0 | 0.0 | 0.00 | 0.00 | 0.00 | 82 | 1009.0 |
| 20260505025357 | 10 | 89 | 0.0 | 0.0 | 0.00 | 0.00 | 0.00 | 82 | 1009.0 |
| 20260505025258 | 10 | 89 | 0.0 | 0.0 | 0.00 | 0.00 | 0.00 | 82 | 1009.0 |
| 20260505025141 | 10 | 89 | 0.0 | 0.0 | 0.00 | 0.00 | 0.00 | 82 | 1009.0 |
| 20260505025046 | 10 | 89 | 0.0 | 0.0 | 0.00 | 0.00 | 0.00 | 82 | 1009.0 |
| 20260505025021 | 9 | 89 | 0.0 | 0.0 | 0.00 | 0.00 | 0.00 | 82 | 1008.3 |
| 20260505024917 | 10 | 89 | 0.0 | 0.0 | 0.00 | 0.00 | 0.00 | 82 | 1009.0 |
| 20260505024818 | 10 | 89 | 0.0 | 0.0 | 0.00 | 0.00 | 0.00 | 82 | 1009.0 |
| 20260505024722 | 10 | 89 | 0.0 | 0.0 | 0.00 | 0.00 | 0.00 | 82 | 1009.0 |
| 20260505024645 | 9 | 89 | 0.0 | 0.0 | 0.00 | 0.00 | 0.00 | 82 | 1008.4 |
| 20260505024613 | 10 | 89 | 0.0 | 0.0 | 0.00 | 0.00 | 0.00 | 82 | 1009.0 |
| 20260505024434 | 10 | 89 | 0.0 | 0.0 | 0.00 | 0.00 | 0.00 | 82 | 1009.0 |
| 20260505024340 | 10 | 89 | 0.0 | 0.0 | 0.00 | 0.00 | 0.00 | 82 | 1009.1 |
| 20260505024241 | 10 | 89 | 0.0 | 0.0 | 0.00 | 0.00 | 0.00 | 82 | 1009.0 |
| 20260505024149 | 9 | 89 | 0.0 | 0.0 | 0.00 | 0.00 | 0.00 | 82 | 1008.3 |
| 20260505024114 | 10 | 89 | 0.0 | 0.0 | 0.00 | 0.00 | 0.00 | 82 | 1009.0 |
| 20260505024015 | 10 | 89 | 0.0 | 0.0 | 0.00 | 0.00 | 0.00 | 82 | 1009.1 |
| 20260505023919 | 10 | 89 | 0.0 | 0.0 | 0.00 | 0.00 | 0.00 | 82 | 1009.1 |
| 20260505023822 | 10 | 89 | 0.0 | 0.0 | 0.00 | 0.00 | 0.00 | 81 | 1009.1 |
| 20260505023716 | 10 | 89 | 0.0 | 0.0 | 0.00 | 0.00 | 0.00 | 81 | 1009.1 |
| 20260505023623 | 10 | 89 | 0.0 | 0.0 | 0.00 | 0.00 | 0.00 | 81 | 1009.1 |
| 20260505023523 | 10 | 89 | 0.0 | 0.0 | 0.00 | 0.00 | 0.00 | 81 | 1009.1 |
| 20260505023426 | 10 | 89 | 0.0 | 0.0 | 0.00 | 0.00 | 0.00 | 81 | 1009.1 |
| 20260505023319 | 10 | 89 | 0.0 | 0.0 | 0.00 | 0.00 | 0.00 | 81 | 1009.1 |
| 20260505023049 | 10 | 89 | 0.0 | 0.0 | 0.00 | 0.00 | 0.00 | 81 | 1009.1 |
| 20260505023015 | 10 | 89 | 0.0 | 0.0 | 0.00 | 0.00 | 0.00 | 81 | 1008.4 |
| 20260505022944 | 10 | 89 | 0.0 | 0.0 | 0.00 | 0.00 | 0.00 | 81 | 1009.1 |
| 20260505022852 | 10 | 89 | 0.0 | 0.0 | 0.00 | 0.00 | 0.00 | 81 | 1009.1 |
| 20260505022733 | 10 | 89 | 0.0 | 0.0 | 0.00 | 0.00 | 0.00 | 81 | 1009.1 |
| 20260505022635 | 10 | 89 | 0.0 | 0.0 | 0.00 | 0.00 | 0.00 | 81 | 1009.1 |
| 20260505022515 | 10 | 89 | 0.0 | 0.0 | 0.00 | 0.00 | 0.00 | 81 | 1009.1 |
| 20260505022407 | 10 | 89 | 0.0 | 0.0 | 0.00 | 0.00 | 0.00 | 80 | 1009.1 |
| 20260505022311 | 10 | 89 | 0.0 | 0.0 | 0.00 | 0.00 | 0.00 | 80 | 1009.1 |
| 20260505022152 | 10 | 89 | 0.0 | 0.0 | 0.00 | 0.00 | 0.00 | 80 | 1009.1 |
| 20260505022031 | 10 | 89 | 0.0 | 0.0 | 0.00 | 0.00 | 0.00 | 80 | 1009.2 |
| 20260505022008 | 10 | 89 | 0.0 | 0.0 | 0.00 | 0.00 | 0.00 | 80 | 1008.5 |
| 20260505021924 | 10 | 89 | 0.0 | 0.0 | 0.00 | 0.00 | 0.00 | 80 | 1009.1 |
| 20260505021826 | 10 | 89 | 0.0 | 0.0 | 0.00 | 0.00 | 0.00 | 80 | 1009.2 |
| 20260505021731 | 10 | 89 | 0.0 | 0.0 | 0.00 | 0.00 | 0.00 | 80 | 1009.2 |
| 20260505021702 | 10 | 89 | 0.0 | 0.0 | 0.00 | 0.00 | 0.00 | 80 | 1008.5 |
| 20260505021624 | 10 | 89 | 0.0 | 0.0 | 0.00 | 0.00 | 0.00 | 80 | 1009.2 |
| 20260505021402 | 10 | 89 | 0.0 | 0.0 | 0.00 | 0.00 | 0.00 | 80 | 1009.2 |
| 20260505021244 | 10 | 89 | 0.0 | 0.0 | 0.00 | 0.00 | 0.00 | 80 | 1009.2 |
| 20260505021138 | 10 | 89 | 0.0 | 0.0 | 0.00 | 0.00 | 0.00 | 80 | 1009.2 |
| 20260505021016 | 10 | 89 | 0.0 | 0.0 | 0.00 | 0.00 | 0.00 | 79 | 1009.2 |
| 20260505020919 | 10 | 89 | 0.0 | 0.0 | 0.00 | 0.00 | 0.00 | 79 | 1009.3 |
| 20260505020813 | 10 | 89 | 0.0 | 0.0 | 0.00 | 0.00 | 0.00 | 79 | 1009.3 |
| 20260505020656 | 10 | 89 | 0.0 | 0.0 | 0.00 | 0.00 | 0.00 | 79 | 1009.4 |
| 20260505020601 | 10 | 89 | 0.0 | 0.0 | 0.00 | 0.00 | 0.00 | 79 | 1009.4 |
| 20260505020503 | 10 | 89 | 0.0 | 0.0 | 0.00 | 0.00 | 0.00 | 79 | 1009.4 |
| 20260505020357 | 10 | 89 | 0.0 | 0.0 | 0.00 | 0.00 | 0.00 | 79 | 1009.3 |
| 20260505020300 | 10 | 89 | 0.0 | 0.0 | 0.00 | 0.00 | 0.00 | 79 | 1009.4 |
| 20260505020200 | 11 | 89 | 0.0 | 0.0 | 0.00 | 0.00 | 0.00 | 79 | 1009.4 |
| 20260505020059 | 11 | 89 | 0.0 | 0.0 | 0.00 | 0.00 | 0.00 | 79 | 1009.4 |
| 20260505020028 | 10 | 89 | 0.0 | 0.0 | 0.00 | 0.00 | 0.00 | 78 | 1008.6 |
| 20260505015956 | 11 | 89 | 0.0 | 0.0 | 0.00 | 0.00 | 0.00 | 78 | 1009.4 |
| 20260505015859 | 11 | 89 | 0.0 | 0.0 | 0.00 | 0.00 | 0.00 | 78 | 1009.4 |
| 20260505015635 | 11 | 89 | 0.0 | 0.0 | 0.00 | 0.00 | 0.00 | 79 | 1009.5 |
| 20260505015553 | 10 | 89 | 0.0 | 0.0 | 0.00 | 0.00 | 0.00 | 79 | 1008.7 |
| 20260505015506 | 11 | 89 | 0.0 | 0.0 | 0.00 | 0.00 | 0.00 | 79 | 1009.5 |
| 20260505015408 | 11 | 89 | 0.0 | 0.0 | 0.00 | 0.00 | 0.00 | 79 | 1009.4 |
| 20260505015311 | 11 | 89 | 0.0 | 0.0 | 0.00 | 0.00 | 0.00 | 79 | 1009.4 |
| 20260505015157 | 11 | 89 | 0.0 | 1.6 | 0.00 | 0.00 | 0.00 | 79 | 1009.4 |
| 20260505015057 | 11 | 89 | 0.0 | 3.2 | 0.00 | 0.00 | 0.00 | 79 | 1009.4 |
| 20260505015000 | 11 | 89 | 0.0 | 3.2 | 0.00 | 0.00 | 0.00 | 79 | 1009.4 |
| 20260505014902 | 11 | 89 | 0.0 | 3.2 | 0.00 | 0.00 | 0.00 | 79 | 1009.4 |
| 20260505014756 | 11 | 89 | 0.0 | 3.2 | 0.00 | 0.00 | 0.00 | 79 | 1009.4 |
| 20260505014700 | 11 | 89 | 0.0 | 4.8 | 0.00 | 0.00 | 0.00 | 79 | 1009.4 |
| 20260505014538 | 11 | 89 | 0.0 | 6.4 | 0.00 | 0.00 | 0.00 | 79 | 1009.4 |
| 20260505014446 | 11 | 89 | 0.0 | 6.4 | 0.00 | 0.00 | 0.00 | 79 | 1009.4 |
| 20260505014339 | 11 | 89 | 1.6 | 6.4 | 0.00 | 0.00 | 0.00 | 79 | 1009.5 |
| 20260505014236 | 11 | 89 | 1.6 | 6.4 | 0.00 | 0.00 | 0.00 | 79 | 1009.5 |
| 20260505014138 | 11 | 89 | 1.6 | 6.4 | 0.00 | 0.00 | 0.00 | 79 | 1009.5 |
| 20260505014038 | 11 | 89 | 1.6 | 6.4 | 0.00 | 0.00 | 0.00 | 79 | 1009.4 |
| 20260505013941 | 11 | 89 | 3.2 | 6.4 | 0.00 | 0.00 | 0.00 | 79 | 1009.4 |
| 20260505013839 | 11 | 89 | 3.2 | 8.0 | 0.00 | 0.00 | 0.00 | 79 | 1009.5 |
| 20260505013742 | 11 | 88 | 3.2 | 8.0 | 0.00 | 0.00 | 0.00 | 79 | 1009.5 |
| 20260505013624 | 11 | 88 | 4.8 | 8.0 | 0.00 | 0.00 | 0.00 | 79 | 1009.5 |
| 20260505013504 | 11 | 88 | 4.8 | 8.0 | 0.00 | 0.00 | 0.00 | 78 | 1009.5 |
| 20260505013359 | 11 | 80 | 4.8 | 8.0 | 0.00 | 0.00 | 0.00 | 78 | 1009.5 |
| 20260505013302 | 11 | 78 | 4.8 | 8.0 | 0.00 | 0.00 | 0.00 | 78 | 1009.5 |
| 20260505013143 | 11 | 76 | 4.8 | 8.0 | 0.00 | 0.00 | 0.00 | 78 | 1009.5 |
| 20260505013048 | 11 | 76 | 4.8 | 8.0 | 0.00 | 0.00 | 0.00 | 78 | 1009.5 |
| 20260505013006 | 11 | 93 | 3.2 | 6.4 | 0.00 | 0.00 | 0.00 | 78 | 1008.7 |
| 20260505012920 | 11 | 97 | 4.8 | 6.4 | 0.00 | 0.00 | 0.00 | 78 | 1009.5 |
| 20260505012822 | 11 | 97 | 4.8 | 6.4 | 0.00 | 0.00 | 0.00 | 77 | 1009.6 |
| 20260505012725 | 11 | 97 | 3.2 | 4.8 | 0.00 | 0.00 | 0.00 | 77 | 1009.5 |
| 20260505012649 | 11 | 97 | 3.2 | 4.8 | 0.00 | 0.00 | 0.00 | 77 | 1008.8 |
| 20260505012555 | 11 | 97 | 1.6 | 3.2 | 0.00 | 0.00 | 0.00 | 77 | 1009.5 |
| 20260505012456 | 11 | 97 | 1.6 | 3.2 | 0.00 | 0.00 | 0.00 | 77 | 1009.6 |
| 20260505012401 | 11 | 97 | 0.0 | 3.2 | 0.00 | 0.00 | 0.00 | 77 | 1009.6 |
| 20260505012304 | 11 | 97 | 0.0 | 0.0 | 0.00 | 0.00 | 0.00 | 77 | 1009.6 |
| 20260505012152 | 11 | 97 | 0.0 | 0.0 | 0.00 | 0.00 | 0.00 | 77 | 1009.7 |
| 20260505012054 | 11 | 97 | 0.0 | 0.0 | 0.00 | 0.00 | 0.00 | 77 | 1009.7 |
| 20260505011957 | 11 | 97 | 0.0 | 3.2 | 0.00 | 0.00 | 0.00 | 77 | 1009.7 |
| 20260505011858 | 11 | 97 | 0.0 | 4.8 | 0.00 | 0.00 | 0.00 | 77 | 1009.7 |
| 20260505011737 | 11 | 97 | 0.0 | 4.8 | 0.00 | 0.00 | 0.00 | 77 | 1009.7 |
| 20260505011619 | 11 | 97 | 0.0 | 4.8 | 0.00 | 0.00 | 0.00 | 77 | 1009.7 |
| 20260505011520 | 11 | 97 | 0.0 | 4.8 | 0.00 | 0.00 | 0.00 | 77 | 1009.7 |
| 20260505011413 | 11 | 97 | 0.0 | 4.8 | 0.00 | 0.00 | 0.00 | 77 | 1009.7 |
| 20260505011316 | 11 | 97 | 0.0 | 6.4 | 0.00 | 0.00 | 0.00 | 77 | 1009.7 |
| 20260505011213 | 11 | 97 | 1.6 | 6.4 | 0.00 | 0.00 | 0.00 | 77 | 1009.7 |
| 20260505011053 | 11 | 97 | 3.2 | 6.4 | 0.00 | 0.00 | 0.00 | 77 | 1009.7 |
| 20260505011029 | 11 | 97 | 1.6 | 6.4 | 0.00 | 0.00 | 0.00 | 77 | 1008.9 |
| 20260505010932 | 11 | 97 | 3.2 | 6.4 | 0.00 | 0.00 | 0.00 | 78 | 1009.7 |
| 20260505010835 | 11 | 97 | 3.2 | 6.4 | 0.00 | 0.00 | 0.00 | 78 | 1009.7 |
| 20260505010727 | 11 | 97 | 3.2 | 6.4 | 0.00 | 0.00 | 0.00 | 78 | 1009.7 |
| 20260505010630 | 11 | 97 | 3.2 | 6.4 | 0.00 | 0.00 | 0.00 | 78 | 1009.8 |
| 20260505010531 | 11 | 97 | 4.8 | 6.4 | 0.00 | 0.00 | 0.00 | 78 | 1009.8 |
| 20260505010434 | 11 | 97 | 4.8 | 6.4 | 0.00 | 0.00 | 0.00 | 78 | 1009.8 |
| 20260505010320 | 11 | 97 | 4.8 | 6.4 | 0.00 | 0.00 | 0.00 | 78 | 1009.8 |
| 20260505010206 | 11 | 97 | 4.8 | 6.4 | 0.00 | 0.00 | 0.00 | 78 | 1009.8 |
| 20260505010110 | 11 | 97 | 4.8 | 6.4 | 0.00 | 0.00 | 0.00 | 78 | 1009.8 |
| 20260505010011 | 11 | 97 | 4.8 | 4.8 | 0.00 | 0.00 | 0.00 | 78 | 1009.8 |
| 20260505005905 | 11 | 97 | 3.2 | 4.8 | 0.00 | 0.00 | 0.00 | 78 | 1009.8 |
| 20260505005808 | 11 | 97 | 3.2 | 4.8 | 0.00 | 0.00 | 0.00 | 78 | 1009.8 |
| 20260505005715 | 11 | 97 | 1.6 | 3.2 | 0.00 | 0.00 | 0.00 | 78 | 1009.8 |
| 20260505005618 | 11 | 97 | 1.6 | 3.2 | 0.00 | 0.00 | 0.00 | 79 | 1009.8 |
| 20260505005549 | 11 | 97 | 0.0 | 3.2 | 0.00 | 0.00 | 0.00 | 79 | 1009.0 |
| 20260505005510 | 11 | 97 | 1.6 | 3.2 | 0.00 | 0.00 | 0.00 | 79 | 1009.8 |
| 20260505005412 | 11 | 97 | 0.0 | 1.6 | 0.00 | 0.00 | 0.00 | 79 | 1009.7 |
| 20260505005315 | 11 | 97 | 0.0 | 3.2 | 0.00 | 0.00 | 0.00 | 79 | 1009.7 |
| 20260505005209 | 11 | 97 | 0.0 | 3.2 | 0.00 | 0.00 | 0.00 | 79 | 1009.8 |
| 20260505005141 | 10 | 97 | 0.0 | 3.2 | 0.00 | 0.00 | 0.00 | 79 | 1009.0 |
| 20260505005038 | 11 | 97 | 0.0 | 3.2 | 0.00 | 0.00 | 0.00 | 79 | 1009.8 |
| 20260505004944 | 11 | 97 | 0.0 | 3.2 | 0.00 | 0.00 | 0.00 | 79 | 1009.8 |
| 20260505004827 | 11 | 97 | 0.0 | 3.2 | 0.00 | 0.00 | 0.00 | 79 | 1009.8 |
| 20260505004728 | 11 | 97 | 0.0 | 4.8 | 0.00 | 0.00 | 0.00 | 79 | 1009.9 |
| 20260505004600 | 11 | 97 | 1.6 | 4.8 | 0.00 | 0.00 | 0.00 | 79 | 1009.9 |
| 20260505004503 | 11 | 97 | 3.2 | 4.8 | 0.00 | 0.00 | 0.00 | 79 | 1009.9 |
| 20260505004406 | 11 | 97 | 3.2 | 4.8 | 0.00 | 0.00 | 0.00 | 79 | 1009.8 |
| 20260505004314 | 11 | 97 | 1.6 | 4.8 | 0.00 | 0.00 | 0.00 | 79 | 1009.9 |
| 20260505004201 | 11 | 97 | 3.2 | 4.8 | 0.00 | 0.00 | 0.00 | 79 | 1009.9 |
| 20260505004101 | 10 | 97 | 1.6 | 4.8 | 0.00 | 0.00 | 0.00 | 80 | 1009.9 |
| 20260505004003 | 10 | 97 | 1.6 | 4.8 | 0.00 | 0.00 | 0.00 | 80 | 1009.9 |
| 20260505003845 | 10 | 97 | 0.0 | 4.8 | 0.00 | 0.00 | 0.00 | 80 | 1009.9 |
| 20260505003715 | 10 | 97 | 1.6 | 4.8 | 0.00 | 0.00 | 0.00 | 81 | 1009.9 |
| 20260505003618 | 10 | 97 | 3.2 | 4.8 | 0.00 | 0.00 | 0.00 | 81 | 1009.9 |
| 20260505003524 | 10 | 97 | 1.6 | 4.8 | 0.00 | 0.00 | 0.00 | 81 | 1010.0 |
| 20260505003418 | 10 | 97 | 1.6 | 6.4 | 0.00 | 0.00 | 0.00 | 81 | 1010.0 |
| 20260505003249 | 10 | 97 | 1.6 | 6.4 | 0.00 | 0.00 | 0.00 | 81 | 1010.0 |
| 20260505003130 | 10 | 97 | 1.6 | 6.4 | 0.00 | 0.00 | 0.00 | 81 | 1010.0 |
| 20260505003030 | 10 | 97 | 3.2 | 6.4 | 0.00 | 0.00 | 0.00 | 82 | 1010.0 |
| 20260505002841 | 10 | 97 | 1.6 | 6.4 | 0.00 | 0.00 | 0.00 | 82 | 1010.0 |
| 20260505002748 | 10 | 97 | 0.0 | 6.4 | 0.00 | 0.00 | 0.00 | 81 | 1010.0 |
| 20260505002651 | 10 | 97 | 1.6 | 6.4 | 0.00 | 0.00 | 0.00 | 82 | 1010.0 |
| 20260505002552 | 10 | 97 | 3.2 | 6.4 | 0.00 | 0.00 | 0.00 | 82 | 1010.0 |
| 20260505002533 | 10 | 97 | 1.6 | 6.4 | 0.00 | 0.00 | 0.00 | 81 | 1009.2 |
| 20260505002447 | 10 | 97 | 1.6 | 9.7 | 0.00 | 0.00 | 0.00 | 81 | 1010.0 |
| 20260505002349 | 10 | 97 | 0.0 | 9.7 | 0.00 | 0.00 | 0.00 | 81 | 1010.0 |
| 20260505002246 | 10 | 97 | 3.2 | 9.7 | 0.00 | 0.00 | 0.00 | 81 | 1010.1 |
| 20260505002152 | 10 | 97 | 3.2 | 9.7 | 0.00 | 0.00 | 0.00 | 81 | 1009.3 |
| 20260505002118 | 10 | 97 | 4.8 | 9.7 | 0.00 | 0.00 | 0.00 | 81 | 1010.0 |
| 20260505002023 | 10 | 97 | 3.2 | 9.7 | 0.00 | 0.00 | 0.00 | 81 | 1010.0 |
| 20260505001926 | 10 | 98 | 1.6 | 9.7 | 0.00 | 0.00 | 0.00 | 81 | 1010.0 |
| 20260505001806 | 10 | 98 | 4.8 | 9.7 | 0.00 | 0.00 | 0.00 | 81 | 1010.1 |
| 20260505001701 | 10 | 95 | 6.4 | 9.7 | 0.00 | 0.00 | 0.00 | 81 | 1010.0 |
| 20260505001601 | 10 | 89 | 4.8 | 6.4 | 0.00 | 0.00 | 0.00 | 81 | 1010.0 |
| 20260505001443 | 10 | 97 | 3.2 | 6.4 | 0.00 | 0.00 | 0.00 | 81 | 1010.0 |
| 20260505001350 | 10 | 97 | 1.6 | 6.4 | 0.00 | 0.00 | 0.00 | 80 | 1010.1 |
| 20260505001234 | 10 | 97 | 3.2 | 6.4 | 0.00 | 0.00 | 0.00 | 80 | 1010.1 |
| 20260505001138 | 10 | 97 | 3.2 | 6.4 | 0.00 | 0.00 | 0.00 | 80 | 1010.0 |
| 20260505001040 | 10 | 93 | 1.6 | 6.4 | 0.00 | 0.00 | 0.00 | 80 | 1010.1 |
| 20260505000942 | 10 | 93 | 0.0 | 6.4 | 0.00 | 0.00 | 0.00 | 80 | 1010.0 |
| 20260505000836 | 10 | 93 | 0.0 | 6.4 | 0.00 | 0.00 | 0.00 | 80 | 1010.1 |
| 20260505000740 | 10 | 93 | 0.0 | 6.4 | 0.00 | 0.00 | 0.00 | 80 | 1010.1 |
| 20260505000626 | 10 | 93 | 1.6 | 6.4 | 0.00 | 0.00 | 0.00 | 80 | 1010.0 |
| 20260505000528 | 10 | 93 | 3.2 | 6.4 | 0.00 | 0.00 | 0.00 | 80 | 1010.0 |
| 20260505000423 | 10 | 93 | 4.8 | 6.4 | 0.00 | 0.00 | 0.00 | 80 | 1010.1 |
| 20260505000325 | 10 | 93 | 3.2 | 6.4 | 0.00 | 0.00 | 0.00 | 79 | 1010.1 |
| 20260505000223 | 10 | 93 | 1.6 | 4.8 | 0.00 | 0.00 | 0.00 | 79 | 1010.1 |
| 20260505000125 | 10 | 309 | 0.0 | 1.6 | 0.00 | 0.00 | 0.00 | 79 | 1010.0 |
| 20260505000105 | 10 | 309 | 0.0 | 0.0 | 0.00 | 0.00 | 0.00 | 79 | 1009.3 |
| 20260505000020 | 10 | 309 | 0.0 | 0.0 | 0.00 | 0.00 | 0.00 | 78 | 1010.0 |
| 20260504235920 | 10 | 309 | 0.0 | 0.0 | 0.00 | 0.00 | 0.00 | 78 | 1010.0 |
| 20260504235822 | 10 | 309 | 0.0 | 0.0 | 0.00 | 0.00 | 0.00 | 78 | 1010.0 |
| 20260504235726 | 10 | 309 | 0.0 | 0.0 | 0.00 | 0.00 | 0.00 | 78 | 1010.1 |
| 20260504235659 | 10 | 309 | 0.0 | 1.6 | 0.00 | 0.00 | 0.00 | 78 | 1009.3 |
| 20260504235617 | 10 | 309 | 0.0 | 3.2 | 0.00 | 0.00 | 0.00 | 78 | 1010.0 |
| 20260504235437 | 10 | 309 | 0.0 | 3.2 | 0.00 | 0.00 | 0.00 | 78 | 1010.0 |
| 20260504235340 | 10 | 309 | 0.0 | 4.8 | 0.00 | 0.00 | 0.00 | 78 | 1010.0 |
| 20260504235220 | 10 | 309 | 0.0 | 8.0 | 0.00 | 0.00 | 0.00 | 78 | 1010.0 |
| 20260504235150 | 10 | 309 | 0.0 | 8.0 | 0.00 | 0.00 | 0.00 | 78 | 1009.3 |
| 20260504235115 | 10 | 309 | 0.0 | 8.0 | 0.00 | 0.00 | 0.00 | 78 | 1010.1 |
| 20260504235014 | 10 | 309 | 0.0 | 8.0 | 0.00 | 0.00 | 0.00 | 78 | 1010.1 |
| 20260504234917 | 10 | 309 | 1.6 | 8.0 | 0.00 | 0.00 | 0.00 | 78 | 1010.0 |
| 20260504234821 | 10 | 309 | 1.6 | 8.0 | 0.00 | 0.00 | 0.00 | 78 | 1010.0 |
| 20260504234716 | 10 | 309 | 1.6 | 8.0 | 0.00 | 0.00 | 0.00 | 78 | 1010.0 |
| 20260504234558 | 10 | 309 | 3.2 | 8.0 | 0.00 | 0.00 | 0.00 | 78 | 1010.0 |
| 20260504234502 | 10 | 309 | 3.2 | 8.0 | 0.00 | 0.00 | 0.00 | 78 | 1010.0 |
| 20260504234406 | 10 | 313 | 1.6 | 6.4 | 0.00 | 0.00 | 0.00 | 78 | 1010.0 |
| 20260504234259 | 11 | 62 | 3.2 | 4.8 | 0.00 | 0.00 | 0.00 | 78 | 1010.0 |
| 20260504234201 | 11 | 89 | 1.6 | 4.8 | 0.00 | 0.00 | 0.00 | 77 | 1010.0 |
| 20260504234100 | 11 | 89 | 0.0 | 1.6 | 0.00 | 0.00 | 0.00 | 77 | 1010.1 |
| 20260504234004 | 11 | 89 | 0.0 | 0.0 | 0.00 | 0.00 | 0.00 | 77 | 1010.1 |
| 20260504233901 | 11 | 89 | 0.0 | 0.0 | 0.00 | 0.00 | 0.00 | 77 | 1010.1 |
| 20260504233805 | 11 | 89 | 0.0 | 0.0 | 0.00 | 0.00 | 0.00 | 77 | 1010.1 |
| 20260504233708 | 11 | 89 | 0.0 | 0.0 | 0.00 | 0.00 | 0.00 | 76 | 1010.1 |
| 20260504233611 | 11 | 89 | 0.0 | 0.0 | 0.00 | 0.00 | 0.00 | 76 | 1010.1 |
| 20260504233541 | 10 | 89 | 0.0 | 0.0 | 0.00 | 0.00 | 0.00 | 76 | 1009.3 |
| 20260504233503 | 11 | 89 | 0.0 | 0.0 | 0.00 | 0.00 | 0.00 | 76 | 1010.1 |
| 20260504233345 | 11 | 89 | 0.0 | 0.0 | 0.00 | 0.00 | 0.00 | 76 | 1010.1 |
| 20260504233252 | 11 | 89 | 0.0 | 0.0 | 0.00 | 0.00 | 0.00 | 76 | 1010.1 |
| 20260504233147 | 11 | 89 | 0.0 | 0.0 | 0.00 | 0.00 | 0.00 | 76 | 1010.1 |
| 20260504233045 | 11 | 89 | 0.0 | 0.0 | 0.00 | 0.00 | 0.00 | 76 | 1010.0 |
| 20260504232906 | 11 | 89 | 0.0 | 0.0 | 0.00 | 0.00 | 0.00 | 75 | 1010.0 |
| 20260504232810 | 11 | 89 | 0.0 | 0.0 | 0.00 | 0.00 | 0.00 | 75 | 1009.9 |
| 20260504232705 | 11 | 89 | 0.0 | 0.0 | 0.00 | 0.00 | 0.00 | 75 | 1009.9 |
| 20260504232607 | 11 | 89 | 0.0 | 0.0 | 0.00 | 0.00 | 0.00 | 75 | 1010.0 |
| 20260504232335 | 11 | 89 | 0.0 | 0.0 | 0.00 | 0.00 | 0.00 | 75 | 1010.0 |
| 20260504232236 | 11 | 89 | 0.0 | 0.0 | 0.00 | 0.00 | 0.00 | 75 | 1010.1 |
| 20260504232138 | 11 | 89 | 0.0 | 0.0 | 0.00 | 0.00 | 0.00 | 75 | 1010.0 |
| 20260504232040 | 11 | 89 | 0.0 | 0.0 | 0.00 | 0.00 | 0.00 | 75 | 1010.1 |
| 20260504232017 | 11 | 89 | 0.0 | 0.0 | 0.00 | 0.00 | 0.00 | 75 | 1009.3 |
| 20260504231934 | 11 | 89 | 0.0 | 0.0 | 0.00 | 0.00 | 0.00 | 75 | 1010.0 |
| 20260504231838 | 11 | 89 | 0.0 | 0.0 | 0.00 | 0.00 | 0.00 | 75 | 1010.0 |
| 20260504231745 | 11 | 89 | 0.0 | 0.0 | 0.00 | 0.00 | 0.00 | 75 | 1010.1 |
| 20260504231640 | 11 | 89 | 0.0 | 0.0 | 0.00 | 0.00 | 0.00 | 76 | 1010.0 |
| 20260504231520 | 11 | 89 | 0.0 | 0.0 | 0.00 | 0.00 | 0.00 | 76 | 1010.0 |
| 20260504231424 | 11 | 89 | 0.0 | 0.0 | 0.00 | 0.00 | 0.00 | 76 | 1009.9 |
| 20260504231328 | 11 | 89 | 0.0 | 0.0 | 0.00 | 0.00 | 0.00 | 75 | 1010.0 |
| 20260504231216 | 11 | 89 | 0.0 | 0.0 | 0.00 | 0.00 | 0.00 | 75 | 1010.0 |
| 20260504231123 | 11 | 89 | 0.0 | 0.0 | 0.00 | 0.00 | 0.00 | 75 | 1010.0 |
| 20260504231025 | 11 | 89 | 0.0 | 0.0 | 0.00 | 0.00 | 0.00 | 75 | 1010.0 |
| 20260504230920 | 11 | 89 | 0.0 | 0.0 | 0.00 | 0.00 | 0.00 | 75 | 1010.0 |
| 20260504230823 | 11 | 89 | 0.0 | 0.0 | 0.00 | 0.00 | 0.00 | 75 | 1010.0 |
| 20260504230704 | 11 | 89 | 0.0 | 0.0 | 0.00 | 0.00 | 0.00 | 74 | 1010.0 |
| 20260504230631 | 11 | 89 | 0.0 | 0.0 | 0.00 | 0.00 | 0.00 | 74 | 1009.1 |
| 20260504230557 | 11 | 89 | 0.0 | 0.0 | 0.00 | 0.00 | 0.00 | 74 | 1010.0 |
| 20260504230459 | 11 | 89 | 0.0 | 0.0 | 0.00 | 0.00 | 0.00 | 74 | 1010.0 |
| 20260504230406 | 12 | 89 | 0.0 | 0.0 | 0.00 | 0.00 | 0.00 | 75 | 1010.0 |
| 20260504230309 | 12 | 89 | 0.0 | 0.0 | 0.00 | 0.00 | 0.00 | 74 | 1010.0 |
| 20260504230200 | 12 | 89 | 0.0 | 0.0 | 0.00 | 0.00 | 0.00 | 74 | 1010.0 |
| 20260504230101 | 12 | 89 | 0.0 | 0.0 | 0.00 | 0.00 | 0.00 | 74 | 1010.1 |
| 20260504230005 | 12 | 89 | 0.0 | 0.0 | 0.00 | 0.00 | 0.00 | 74 | 1010.1 |
| 20260504225859 | 12 | 89 | 0.0 | 0.0 | 0.00 | 0.00 | 0.00 | 74 | 1010.0 |
| 20260504225745 | 12 | 89 | 0.0 | 0.0 | 0.00 | 0.00 | 0.00 | 74 | 1010.1 |
| 20260504225648 | 12 | 89 | 0.0 | 0.0 | 0.00 | 0.00 | 0.00 | 74 | 1010.0 |
| 20260504225550 | 12 | 89 | 0.0 | 0.0 | 0.00 | 0.00 | 0.00 | 74 | 1010.1 |
| 20260504225528 | 11 | 89 | 0.0 | 0.0 | 0.00 | 0.00 | 0.00 | 74 | 1009.3 |
| 20260504225443 | 12 | 89 | 0.0 | 0.0 | 0.00 | 0.00 | 0.00 | 74 | 1010.1 |
| 20260504225325 | 12 | 89 | 0.0 | 0.0 | 0.00 | 0.00 | 0.00 | 75 | 1010.0 |
| 20260504225227 | 12 | 89 | 0.0 | 0.0 | 0.00 | 0.00 | 0.00 | 75 | 1010.0 |
| 20260504225159 | 12 | 89 | 0.0 | 0.0 | 0.00 | 0.00 | 0.00 | 75 | 1009.2 |
| 20260504224954 | 12 | 89 | 0.0 | 0.0 | 0.00 | 0.00 | 0.00 | 75 | 1010.0 |
| 20260504224857 | 12 | 89 | 0.0 | 0.0 | 0.00 | 0.00 | 0.00 | 75 | 1010.0 |
| 20260504224731 | 12 | 89 | 0.0 | 0.0 | 0.00 | 0.00 | 0.00 | 75 | 1010.0 |
| 20260504224634 | 12 | 89 | 0.0 | 0.0 | 0.00 | 0.00 | 0.00 | 75 | 1010.0 |
| 20260504224535 | 12 | 89 | 0.0 | 0.0 | 0.00 | 0.00 | 0.00 | 75 | 1010.0 |
| 20260504224439 | 12 | 89 | 0.0 | 0.0 | 0.00 | 0.00 | 0.00 | 75 | 1010.0 |
| 20260504224310 | 12 | 89 | 0.0 | 0.0 | 0.00 | 0.00 | 0.00 | 75 | 1010.0 |
| 20260504224216 | 12 | 89 | 0.0 | 0.0 | 0.00 | 0.00 | 0.00 | 74 | 1010.0 |
| 20260504224120 | 12 | 89 | 0.0 | 0.0 | 0.00 | 0.00 | 0.00 | 74 | 1010.0 |
| 20260504224048 | 12 | 89 | 0.0 | 0.0 | 0.00 | 0.00 | 0.00 | 74 | 1009.2 |
| 20260504224013 | 12 | 89 | 0.0 | 0.0 | 0.00 | 0.00 | 0.00 | 74 | 1010.0 |
| 20260504223915 | 12 | 89 | 0.0 | 0.0 | 0.00 | 0.00 | 0.00 | 74 | 1010.0 |
| 20260504223758 | 12 | 89 | 0.0 | 0.0 | 0.00 | 0.00 | 0.00 | 74 | 1010.1 |
| 20260504223651 | 12 | 89 | 0.0 | 0.0 | 0.00 | 0.00 | 0.00 | 74 | 1010.0 |
| 20260504223557 | 12 | 89 | 0.0 | 0.0 | 0.00 | 0.00 | 0.00 | 74 | 1010.1 |
| 20260504223500 | 12 | 89 | 0.0 | 0.0 | 0.00 | 0.00 | 0.00 | 73 | 1010.0 |
| 20260504223222 | 12 | 89 | 0.0 | 0.0 | 0.00 | 0.00 | 0.00 | 74 | 1010.0 |
| 20260504223124 | 12 | 89 | 0.0 | 0.0 | 0.00 | 0.00 | 0.00 | 74 | 1010.1 |
| 20260504223025 | 12 | 89 | 0.0 | 0.0 | 0.00 | 0.00 | 0.00 | 73 | 1010.1 |
| 20260504222919 | 12 | 89 | 0.0 | 0.0 | 0.00 | 0.00 | 0.00 | 73 | 1010.1 |
| 20260504222804 | 12 | 89 | 0.0 | 0.0 | 0.00 | 0.00 | 0.00 | 73 | 1010.1 |
| 20260504222707 | 12 | 89 | 0.0 | 0.0 | 0.00 | 0.00 | 0.00 | 73 | 1010.1 |
| 20260504222632 | 12 | 89 | 0.0 | 0.0 | 0.00 | 0.00 | 0.00 | 73 | 1009.3 |
| 20260504222559 | 12 | 89 | 0.0 | 0.0 | 0.00 | 0.00 | 0.00 | 73 | 1010.1 |
| 20260504222502 | 12 | 89 | 0.0 | 0.0 | 0.00 | 0.00 | 0.00 | 73 | 1010.1 |
| 20260504222405 | 12 | 89 | 0.0 | 0.0 | 0.00 | 0.00 | 0.00 | 73 | 1010.1 |
| 20260504222259 | 12 | 89 | 0.0 | 3.2 | 0.00 | 0.00 | 0.00 | 73 | 1010.1 |
| 20260504222159 | 12 | 89 | 0.0 | 3.2 | 0.00 | 0.00 | 0.00 | 72 | 1010.1 |